Time,TemperatureF,DewpointF,PressureIn,WindDirection,WindDirectionDegrees,WindSpeedMPH,WindSpeedGustMPH,Humidity,HourlyPrecipIn,Conditions,Clouds,dailyrainin,SoftwareType,DateUTC
2013-03-11 00:00:00,36.0,33.0,30.27,SE,135,3.1,5.8,89,0.00,,SKC,0.00,VWS V14.01,2013-03-11 04:00:00,
2013-03-11 00:02:00,36.0,33.0,30.27,SE,135,4.9,4.9,89,0.00,,SKC,0.00,VWS V14.01,2013-03-11 04:02:00,
2013-03-11 00:04:00,36.1,33.2,30.27,SSE,158,2.7,4.0,89,0.00,,SKC,0.00,VWS V14.01,2013-03-11 04:04:00,
2013-03-11 00:05:00,36.1,33.2,30.27,SE,135,3.4,3.8,89,0.00,,SKC,0.00,VWS V14.01,2013-03-11 04:05:00,
2013-03-11 00:06:00,36.1,33.2,30.27,SE,135,4.3,4.3,89,0.00,,SKC,0.00,VWS V14.01,2013-03-11 04:06:00,
2013-03-11 00:08:00,36.3,33.4,30.27,SSE,158,4.3,4.9,89,0.00,,SKC,0.00,VWS V14.01,2013-03-11 04:08:00,
2013-03-11 00:10:00,36.5,33.6,30.27,SSE,158,2.7,4.0,89,0.00,,SKC,0.00,VWS V14.01,2013-03-11 04:10:00,
2013-03-11 00:12:00,36.5,33.6,30.27,South,180,0.0,2.7,89,0.00,,SKC,0.00,VWS V14.01,2013-03-11 04:12:00,
2013-03-11 00:14:00,36.7,33.8,30.27,SE,135,2.9,3.4,89,0.00,,SKC,0.00,VWS V14.01,2013-03-11 04:14:00,
2013-03-11 00:15:00,36.7,33.8,30.27,SSE,158,4.0,4.0,89,0.00,,SKC,0.00,VWS V14.01,2013-03-11 04:15:00,
2013-03-11 00:16:00,36.7,33.8,30.27,SE,135,2.9,4.3,89,0.00,,SKC,0.00,VWS V14.01,2013-03-11 04:16:00,
2013-03-11 00:18:00,36.9,33.9,30.27,SSE,158,3.1,3.8,89,0.00,,SKC,0.00,VWS V14.01,2013-03-11 04:18:00,
2013-03-11 00:20:00,36.9,33.9,30.27,SSE,158,2.9,3.4,89,0.00,,SKC,0.00,VWS V14.01,2013-03-11 04:20:00,
2013-03-11 00:22:00,36.9,33.9,30.27,SSW,202,0.0,3.1,89,0.00,,SKC,0.00,VWS V14.01,2013-03-11 04:22:00,
2013-03-11 00:24:00,37.0,34.1,30.27,SW,225,0.0,0.0,89,0.00,,SKC,0.00,VWS V14.01,2013-03-11 04:24:00,
2013-03-11 00:25:00,37.0,34.1,30.27,SE,135,0.0,0.0,89,0.00,,SKC,0.00,VWS V14.01,2013-03-11 04:25:00,
2013-03-11 00:26:00,37.0,34.1,30.27,ESE,112,2.5,2.5,89,0.00,,SKC,0.00,VWS V14.01,2013-03-11 04:26:00,
2013-03-11 00:28:00,37.0,34.1,30.27,SSE,158,1.3,2.7,89,0.00,,SKC,0.00,VWS V14.01,2013-03-11 04:28:00,
2013-03-11 00:30:00,37.2,34.3,30.27,South,180,2.2,2.2,89,0.00,,SKC,0.00,VWS V14.01,2013-03-11 04:30:00,
2013-03-11 00:32:00,37.2,34.3,30.27,South,180,1.6,2.2,89,0.00,,SKC,0.00,VWS V14.01,2013-03-11 04:32:00,
2013-03-11 00:34:00,37.4,34.5,30.27,South,180,0.0,1.1,89,0.00,,SKC,0.00,VWS V14.01,2013-03-11 04:34:00,
2013-03-11 00:35:00,37.4,34.5,30.27,SE,135,0.0,0.0,89,0.00,,SKC,0.00,VWS V14.01,2013-03-11 04:35:00,
2013-03-11 00:36:00,37.4,34.5,30.27,SE,135,0.0,0.0,89,0.00,,SKC,0.00,VWS V14.01,2013-03-11 04:36:00,
2013-03-11 00:38:00,37.4,34.2,30.27,SSW,202,0.0,1.1,88,0.00,,SKC,0.00,VWS V14.01,2013-03-11 04:38:00,
2013-03-11 00:40:00,37.4,34.2,30.27,South,180,1.3,1.3,88,0.00,,SKC,0.00,VWS V14.01,2013-03-11 04:40:00,
2013-03-11 00:42:00,37.6,34.3,30.27,South,180,0.0,1.3,88,0.00,,SKC,0.00,VWS V14.01,2013-03-11 04:42:00,
2013-03-11 00:44:00,37.6,34.3,30.27,NW,315,0.0,0.0,88,0.00,,SKC,0.00,VWS V14.01,2013-03-11 04:44:00,
2013-03-11 00:45:00,37.6,34.3,30.27,West,270,1.3,1.3,88,0.00,,SKC,0.00,VWS V14.01,2013-03-11 04:45:00,
2013-03-11 00:46:00,37.6,34.3,30.27,SW,225,2.5,2.5,88,0.00,,SKC,0.00,VWS V14.01,2013-03-11 04:46:00,
2013-03-11 00:48:00,37.6,34.3,30.27,SW,225,0.9,1.3,88,0.00,,SKC,0.00,VWS V14.01,2013-03-11 04:48:00,
2013-03-11 00:50:00,37.6,34.3,30.27,SW,225,0.0,0.0,88,0.00,,SKC,0.00,VWS V14.01,2013-03-11 04:50:00,
2013-03-11 00:52:00,37.6,34.3,30.27,SW,225,0.0,0.0,88,0.00,,SKC,0.00,VWS V14.01,2013-03-11 04:52:00,
2013-03-11 00:54:00,37.6,34.3,30.27,WSW,248,0.0,0.0,88,0.00,,SKC,0.00,VWS V14.01,2013-03-11 04:54:00,
2013-03-11 00:55:00,37.6,34.3,30.27,SW,225,0.0,0.0,88,0.00,,SKC,0.00,VWS V14.01,2013-03-11 04:55:00,
2013-03-11 00:56:00,37.6,34.3,30.27,SW,225,0.0,0.0,88,0.00,,SKC,0.00,VWS V14.01,2013-03-11 04:56:00,
2013-03-11 00:58:00,37.6,34.3,30.27,SW,225,0.0,0.0,88,0.00,,SKC,0.00,VWS V14.01,2013-03-11 04:58:00,
2013-03-11 01:00:00,37.6,34.3,30.24,SW,225,0.0,0.0,88,0.00,,SKC,0.00,VWS V14.01,2013-03-11 05:00:00,
2013-03-11 01:02:00,37.6,34.3,30.24,SW,225,0.0,0.0,88,0.00,,SKC,0.00,VWS V14.01,2013-03-11 05:02:00,
2013-03-11 01:04:00,37.6,34.3,30.24,SE,135,1.6,2.2,88,0.00,,SKC,0.00,VWS V14.01,2013-03-11 05:04:00,
2013-03-11 01:06:00,37.6,34.3,30.24,SE,135,2.9,3.1,88,0.00,,SKC,0.00,VWS V14.01,2013-03-11 05:06:00,
2013-03-11 01:08:00,37.6,34.1,30.24,SE,135,3.1,3.1,87,0.00,,SKC,0.00,VWS V14.01,2013-03-11 05:08:00,
2013-03-11 01:10:00,37.6,34.1,30.24,SSE,158,4.9,4.9,87,0.00,,SKC,0.00,VWS V14.01,2013-03-11 05:10:00,
2013-03-11 01:11:00,37.6,34.1,30.24,SSE,158,3.6,4.9,87,0.00,,SKC,0.00,VWS V14.01,2013-03-11 05:11:00,
2013-03-11 01:12:00,37.6,34.1,30.24,SE,135,3.1,4.3,87,0.00,,SKC,0.00,VWS V14.01,2013-03-11 05:12:00,
2013-03-11 01:14:00,37.6,34.1,30.27,SSE,158,3.4,4.0,87,0.00,,SKC,0.00,VWS V14.01,2013-03-11 05:14:00,
2013-03-11 01:16:00,37.4,33.9,30.27,SSE,158,3.8,3.8,87,0.00,,SKC,0.00,VWS V14.01,2013-03-11 05:16:00,
2013-03-11 01:18:00,37.4,33.9,30.27,SSE,158,3.6,3.8,87,0.00,,SKC,0.00,VWS V14.01,2013-03-11 05:18:00,
2013-03-11 01:20:00,37.4,33.9,30.27,SE,135,4.0,4.3,87,0.00,,SKC,0.00,VWS V14.01,2013-03-11 05:20:00,
2013-03-11 01:21:00,37.4,33.9,30.27,SE,135,3.6,4.3,87,0.00,,SKC,0.00,VWS V14.01,2013-03-11 05:21:00,
2013-03-11 01:22:00,37.4,33.9,30.27,SE,135,3.4,4.7,87,0.00,,SKC,0.00,VWS V14.01,2013-03-11 05:22:00,
2013-03-11 01:24:00,37.4,33.9,30.27,SSE,158,3.8,4.0,87,0.00,,SKC,0.00,VWS V14.01,2013-03-11 05:24:00,
2013-03-11 01:26:00,37.4,33.9,30.27,SE,135,3.1,3.8,87,0.00,,SKC,0.00,VWS V14.01,2013-03-11 05:26:00,
2013-03-11 01:28:00,37.4,33.9,30.27,SSE,158,3.6,4.3,87,0.00,,SKC,0.00,VWS V14.01,2013-03-11 05:28:00,
2013-03-11 01:30:00,37.4,33.9,30.27,SSE,158,3.6,3.6,87,0.00,,SKC,0.00,VWS V14.01,2013-03-11 05:30:00,
2013-03-11 01:31:00,37.4,33.9,30.27,South,180,1.3,3.6,87,0.00,,SKC,0.00,VWS V14.01,2013-03-11 05:31:00,
2013-03-11 01:32:00,37.4,33.9,30.27,SSE,158,0.0,2.5,87,0.00,,SKC,0.00,VWS V14.01,2013-03-11 05:32:00,
2013-03-11 01:34:00,37.4,33.9,30.27,SSE,158,0.0,0.0,87,0.00,,SKC,0.00,VWS V14.01,2013-03-11 05:34:00,
2013-03-11 01:36:00,37.4,33.9,30.27,West,270,0.0,0.0,87,0.00,,SKC,0.00,VWS V14.01,2013-03-11 05:36:00,
2013-03-11 01:38:00,37.4,33.9,30.27,West,270,0.0,0.0,87,0.00,,SKC,0.00,VWS V14.01,2013-03-11 05:38:00,
2013-03-11 01:40:00,37.4,33.9,30.27,West,270,0.0,0.0,87,0.00,,SKC,0.00,VWS V14.01,2013-03-11 05:40:00,
2013-03-11 01:41:00,37.4,33.9,30.27,West,270,0.0,0.0,87,0.00,,SKC,0.00,VWS V14.01,2013-03-11 05:41:00,
2013-03-11 01:42:00,37.4,33.9,30.27,West,270,0.0,0.0,87,0.00,,SKC,0.00,VWS V14.01,2013-03-11 05:42:00,
2013-03-11 01:44:00,37.4,33.9,30.27,West,270,0.0,0.0,87,0.00,,SKC,0.00,VWS V14.01,2013-03-11 05:44:00,
2013-03-11 01:46:00,37.6,34.1,30.27,South,180,0.0,0.0,87,0.00,,SKC,0.00,VWS V14.01,2013-03-11 05:46:00,
2013-03-11 01:48:00,37.4,33.9,30.27,South,180,0.0,0.9,87,0.00,,SKC,0.00,VWS V14.01,2013-03-11 05:48:00,
2013-03-11 01:50:00,37.4,33.9,30.27,South,180,0.0,0.0,87,0.00,,SKC,0.00,VWS V14.01,2013-03-11 05:50:00,
2013-03-11 01:51:00,37.6,34.1,30.27,South,180,0.0,0.0,87,0.00,,SKC,0.00,VWS V14.01,2013-03-11 05:51:00,
2013-03-11 01:52:00,37.6,34.1,30.27,South,180,0.0,0.0,87,0.00,,SKC,0.00,VWS V14.01,2013-03-11 05:52:00,
2013-03-11 01:54:00,37.6,34.1,30.27,SSE,158,1.3,1.6,87,0.00,,SKC,0.00,VWS V14.01,2013-03-11 05:54:00,
2013-03-11 01:56:00,37.6,34.3,30.27,SSE,158,1.3,1.6,88,0.00,,SKC,0.00,VWS V14.01,2013-03-11 05:56:00,
2013-03-11 01:58:00,37.6,34.3,30.27,SSE,158,1.1,1.6,88,0.00,,SKC,0.00,VWS V14.01,2013-03-11 05:58:00,
2013-03-11 02:00:00,37.6,34.1,30.27,SE,135,2.5,2.5,87,0.00,,SKC,0.00,VWS V14.01,2013-03-11 06:00:00,
2013-03-11 02:01:00,37.6,34.3,30.27,South,180,0.0,2.2,88,0.00,,SKC,0.00,VWS V14.01,2013-03-11 06:01:00,
2013-03-11 02:02:00,37.6,34.3,30.27,South,180,0.0,2.2,88,0.00,,SKC,0.00,VWS V14.01,2013-03-11 06:02:00,
2013-03-11 02:04:00,37.6,34.3,30.27,South,180,0.0,0.0,88,0.00,,SKC,0.00,VWS V14.01,2013-03-11 06:04:00,
2013-03-11 02:06:00,37.6,34.3,30.27,SW,225,0.0,0.0,88,0.00,,SKC,0.00,VWS V14.01,2013-03-11 06:06:00,
2013-03-11 02:07:00,37.6,34.3,30.27,SW,225,0.0,0.0,88,0.00,,SKC,0.00,VWS V14.01,2013-03-11 06:07:00,
2013-03-11 02:08:00,37.6,34.3,30.27,SW,225,0.0,0.0,88,0.00,,SKC,0.00,VWS V14.01,2013-03-11 06:08:00,
2013-03-11 02:10:00,37.6,34.1,30.27,ESE,112,2.0,2.0,87,0.00,,SKC,0.00,VWS V14.01,2013-03-11 06:10:00,
2013-03-11 02:12:00,37.4,33.9,30.27,SE,135,3.4,3.6,87,0.00,,SKC,0.00,VWS V14.01,2013-03-11 06:12:00,
2013-03-11 02:14:00,37.4,33.9,30.24,SSE,158,4.9,4.9,87,0.00,,SKC,0.00,VWS V14.01,2013-03-11 06:14:00,
2013-03-11 02:16:00,37.4,33.9,30.24,SE,135,4.0,4.3,87,0.00,,SKC,0.00,VWS V14.01,2013-03-11 06:16:00,
2013-03-11 02:17:00,37.4,33.9,30.24,SE,135,4.0,4.3,87,0.00,,SKC,0.00,VWS V14.01,2013-03-11 06:17:00,
2013-03-11 02:18:00,37.4,33.9,30.24,SE,135,4.7,4.7,87,0.00,,SKC,0.00,VWS V14.01,2013-03-11 06:18:00,
2013-03-11 02:20:00,37.4,33.9,30.24,SE,135,5.6,5.6,87,0.00,,SKC,0.00,VWS V14.01,2013-03-11 06:20:00,
2013-03-11 02:22:00,37.4,33.9,30.24,SE,135,5.4,6.0,87,0.00,,SKC,0.00,VWS V14.01,2013-03-11 06:22:00,
2013-03-11 02:24:00,37.2,33.7,30.24,SE,135,4.3,4.7,87,0.00,,SKC,0.00,VWS V14.01,2013-03-11 06:24:00,
2013-03-11 02:26:00,37.2,33.7,30.24,ESE,112,3.8,5.6,87,0.00,,SKC,0.00,VWS V14.01,2013-03-11 06:26:00,
2013-03-11 02:27:00,37.2,33.7,30.24,SE,135,4.3,4.3,87,0.00,,SKC,0.00,VWS V14.01,2013-03-11 06:27:00,
2013-03-11 02:28:00,37.0,33.5,30.24,ESE,112,2.9,4.3,87,0.00,,SKC,0.00,VWS V14.01,2013-03-11 06:28:00,
2013-03-11 02:30:00,37.0,33.5,30.24,SE,135,2.2,3.4,87,0.00,,SKC,0.00,VWS V14.01,2013-03-11 06:30:00,
2013-03-11 02:32:00,36.7,33.2,30.24,ESE,112,1.1,2.2,87,0.00,,SKC,0.00,VWS V14.01,2013-03-11 06:32:00,
2013-03-11 02:34:00,36.7,33.2,30.24,North,0,1.1,1.1,87,0.00,,SKC,0.00,VWS V14.01,2013-03-11 06:34:00,
2013-03-11 02:36:00,36.5,33.0,30.24,North,0,0.0,0.0,87,0.00,,SKC,0.00,VWS V14.01,2013-03-11 06:36:00,
2013-03-11 02:37:00,36.5,33.0,30.24,NE,45,0.0,0.0,87,0.00,,SKC,0.00,VWS V14.01,2013-03-11 06:37:00,
2013-03-11 02:38:00,36.5,33.0,30.24,NE,45,0.0,0.0,87,0.00,,SKC,0.00,VWS V14.01,2013-03-11 06:38:00,
2013-03-11 02:40:00,36.3,32.8,30.24,ENE,68,0.0,0.0,87,0.00,,SKC,0.00,VWS V14.01,2013-03-11 06:40:00,
2013-03-11 02:42:00,36.1,32.7,30.24,East,90,0.0,0.0,87,0.00,,SKC,0.00,VWS V14.01,2013-03-11 06:42:00,
2013-03-11 02:44:00,36.0,32.5,30.24,East,90,0.0,0.0,87,0.00,,SKC,0.00,VWS V14.01,2013-03-11 06:44:00,
2013-03-11 02:46:00,35.8,32.3,30.24,NNE,22,0.0,0.0,87,0.00,,SKC,0.00,VWS V14.01,2013-03-11 06:46:00,
2013-03-11 02:47:00,35.8,32.3,30.24,North,0,0.0,0.0,87,0.00,,SKC,0.00,VWS V14.01,2013-03-11 06:47:00,
2013-03-11 02:48:00,35.8,32.3,30.24,North,0,0.0,0.0,87,0.00,,SKC,0.00,VWS V14.01,2013-03-11 06:48:00,
2013-03-11 02:50:00,35.6,32.1,30.24,North,0,0.0,1.3,87,0.00,,SKC,0.00,VWS V14.01,2013-03-11 06:50:00,
2013-03-11 02:52:00,35.6,32.1,30.24,North,0,0.0,1.1,87,0.00,,SKC,0.00,VWS V14.01,2013-03-11 06:52:00,
2013-03-11 02:54:00,35.6,32.1,30.24,NE,45,0.0,0.0,87,0.00,,SKC,0.00,VWS V14.01,2013-03-11 06:54:00,
2013-03-11 02:56:00,35.4,31.9,30.24,East,90,0.0,0.0,87,0.00,,SKC,0.00,VWS V14.01,2013-03-11 06:56:00,
2013-03-11 02:57:00,35.2,31.8,30.24,East,90,0.0,0.0,87,0.00,,SKC,0.00,VWS V14.01,2013-03-11 06:57:00,
2013-03-11 02:58:00,35.2,31.8,30.24,East,90,0.0,0.0,87,0.00,,SKC,0.00,VWS V14.01,2013-03-11 06:58:00,
2013-03-11 03:00:00,35.1,31.6,30.21,NNE,22,0.0,0.0,87,0.00,,SKC,0.00,VWS V14.01,2013-03-11 07:00:00,
2013-03-11 03:02:00,35.1,31.6,30.21,NE,45,0.0,0.0,87,0.00,,SKC,0.00,VWS V14.01,2013-03-11 07:02:00,
2013-03-11 03:04:00,35.1,31.6,30.21,East,90,0.0,0.0,87,0.00,,SKC,0.00,VWS V14.01,2013-03-11 07:04:00,
2013-03-11 03:06:00,34.9,31.4,30.21,East,90,0.0,0.0,87,0.00,,SKC,0.00,VWS V14.01,2013-03-11 07:06:00,
2013-03-11 03:07:00,34.9,31.4,30.21,East,90,0.0,0.0,87,0.00,,SKC,0.00,VWS V14.01,2013-03-11 07:07:00,
2013-03-11 03:08:00,34.9,31.4,30.21,ENE,68,0.0,0.0,87,0.00,,SKC,0.00,VWS V14.01,2013-03-11 07:08:00,
2013-03-11 03:10:00,34.9,31.7,30.21,ENE,68,0.0,0.0,88,0.00,,SKC,0.00,VWS V14.01,2013-03-11 07:10:00,
2013-03-11 03:12:00,34.9,31.7,30.21,ESE,112,1.6,1.6,88,0.00,,SKC,0.00,VWS V14.01,2013-03-11 07:12:00,
2013-03-11 03:14:00,34.9,31.7,30.18,SE,135,1.3,1.3,88,0.00,,SKC,0.00,VWS V14.01,2013-03-11 07:14:00,
2013-03-11 03:16:00,34.9,31.7,30.18,SE,135,0.0,0.0,88,0.00,,SKC,0.00,VWS V14.01,2013-03-11 07:16:00,
2013-03-11 03:17:00,34.9,31.7,30.18,SE,135,0.0,0.0,88,0.00,,SKC,0.00,VWS V14.01,2013-03-11 07:17:00,
2013-03-11 03:18:00,34.9,31.7,30.18,SE,135,0.0,0.0,88,0.00,,SKC,0.00,VWS V14.01,2013-03-11 07:18:00,
2013-03-11 03:20:00,34.9,32.0,30.18,SE,135,0.0,0.0,89,0.00,,SKC,0.00,VWS V14.01,2013-03-11 07:20:00,
2013-03-11 03:22:00,34.9,32.0,30.18,SE,135,0.0,0.0,89,0.00,,SKC,0.00,VWS V14.01,2013-03-11 07:22:00,
2013-03-11 03:24:00,34.9,32.0,30.18,SE,135,0.0,0.0,89,0.00,,SKC,0.00,VWS V14.01,2013-03-11 07:24:00,
2013-03-11 03:26:00,34.7,31.8,30.18,SE,135,0.0,0.0,89,0.00,,SKC,0.00,VWS V14.01,2013-03-11 07:26:00,
2013-03-11 03:27:00,34.7,31.8,30.18,NE,45,0.0,0.0,89,0.00,,SKC,0.00,VWS V14.01,2013-03-11 07:27:00,
2013-03-11 03:28:00,34.7,31.8,30.18,NE,45,0.0,0.0,89,0.00,,SKC,0.00,VWS V14.01,2013-03-11 07:28:00,
2013-03-11 03:30:00,34.5,31.6,30.21,NNE,22,0.0,0.0,89,0.00,,SKC,0.00,VWS V14.01,2013-03-11 07:30:00,
2013-03-11 03:32:00,34.5,31.6,30.21,ENE,68,0.0,0.0,89,0.00,,SKC,0.00,VWS V14.01,2013-03-11 07:32:00,
2013-03-11 03:34:00,34.3,31.4,30.21,ENE,68,0.0,0.0,89,0.00,,SKC,0.00,VWS V14.01,2013-03-11 07:34:00,
2013-03-11 03:36:00,34.3,31.2,30.21,East,90,0.0,0.0,88,0.00,,SKC,0.00,VWS V14.01,2013-03-11 07:36:00,
2013-03-11 03:37:00,34.2,31.0,30.21,East,90,0.0,0.0,88,0.00,,SKC,0.00,VWS V14.01,2013-03-11 07:37:00,
2013-03-11 03:38:00,34.2,31.0,30.21,East,90,0.0,0.0,88,0.00,,SKC,0.00,VWS V14.01,2013-03-11 07:38:00,
2013-03-11 03:40:00,34.2,31.0,30.21,NNE,22,0.0,0.0,88,0.00,,SKC,0.00,VWS V14.01,2013-03-11 07:40:00,
2013-03-11 03:42:00,34.2,31.3,30.21,NNE,22,0.0,0.0,89,0.00,,SKC,0.00,VWS V14.01,2013-03-11 07:42:00,
2013-03-11 03:44:00,34.0,31.1,30.21,NNE,22,0.0,0.0,89,0.00,,SKC,0.00,VWS V14.01,2013-03-11 07:44:00,
2013-03-11 03:46:00,34.0,30.8,30.21,North,0,0.0,0.0,88,0.00,,SKC,0.00,VWS V14.01,2013-03-11 07:46:00,
2013-03-11 03:47:00,34.0,30.8,30.21,North,0,0.0,0.0,88,0.00,,SKC,0.00,VWS V14.01,2013-03-11 07:47:00,
2013-03-11 03:48:00,34.0,31.1,30.21,North,0,0.0,0.0,89,0.00,,SKC,0.00,VWS V14.01,2013-03-11 07:48:00,
2013-03-11 03:50:00,34.0,31.1,30.21,North,0,0.0,0.0,89,0.00,,SKC,0.00,VWS V14.01,2013-03-11 07:50:00,
2013-03-11 03:52:00,33.8,30.9,30.21,North,0,0.0,0.0,89,0.00,,SKC,0.00,VWS V14.01,2013-03-11 07:52:00,
2013-03-11 03:54:00,33.8,30.9,30.21,NNW,338,0.0,0.0,89,0.00,,SKC,0.00,VWS V14.01,2013-03-11 07:54:00,
2013-03-11 03:56:00,33.6,30.7,30.21,North,0,0.0,0.0,89,0.00,,SKC,0.00,VWS V14.01,2013-03-11 07:56:00,
2013-03-11 03:57:00,33.6,30.7,30.21,North,0,0.0,0.0,89,0.00,,SKC,0.00,VWS V14.01,2013-03-11 07:57:00,
2013-03-11 03:58:00,33.6,30.7,30.21,North,0,0.0,0.0,89,0.00,,SKC,0.00,VWS V14.01,2013-03-11 07:58:00,
2013-03-11 04:00:00,33.4,30.3,30.21,North,0,0.0,0.0,88,0.00,,SKC,0.00,VWS V14.01,2013-03-11 08:00:00,
2013-03-11 04:02:00,33.3,30.1,30.21,NNW,338,0.0,0.0,88,0.00,,SKC,0.00,VWS V14.01,2013-03-11 08:02:00,
2013-03-11 04:04:00,33.3,30.1,30.21,North,0,0.0,0.0,88,0.00,,SKC,0.00,VWS V14.01,2013-03-11 08:04:00,
2013-03-11 04:06:00,33.3,30.1,30.21,North,0,0.0,0.0,88,0.00,,SKC,0.00,VWS V14.01,2013-03-11 08:06:00,
2013-03-11 04:07:00,33.3,30.4,30.21,North,0,0.0,0.0,89,0.00,,SKC,0.00,VWS V14.01,2013-03-11 08:07:00,
2013-03-11 04:08:00,33.3,30.4,30.21,NE,45,0.0,0.0,89,0.00,,SKC,0.00,VWS V14.01,2013-03-11 08:08:00,
2013-03-11 04:10:00,33.1,30.2,30.21,NNE,22,0.0,0.0,89,0.00,,SKC,0.00,VWS V14.01,2013-03-11 08:10:00,
2013-03-11 04:12:00,33.1,30.2,30.21,North,0,1.6,1.6,89,0.00,,SKC,0.00,VWS V14.01,2013-03-11 08:12:00,
2013-03-11 04:14:00,33.1,30.2,30.21,NNE,22,0.0,1.6,89,0.00,,SKC,0.00,VWS V14.01,2013-03-11 08:14:00,
2013-03-11 04:16:00,33.3,30.4,30.21,NNE,22,0.0,0.0,89,0.00,,SKC,0.00,VWS V14.01,2013-03-11 08:16:00,
2013-03-11 04:17:00,33.3,30.4,30.21,NNE,22,0.0,0.0,89,0.00,,SKC,0.00,VWS V14.01,2013-03-11 08:17:00,
2013-03-11 04:18:00,33.3,30.4,30.21,NNE,22,0.0,0.0,89,0.00,,SKC,0.00,VWS V14.01,2013-03-11 08:18:00,
2013-03-11 04:20:00,33.3,30.6,30.21,NNE,22,0.0,0.0,90,0.00,,SKC,0.00,VWS V14.01,2013-03-11 08:20:00,
2013-03-11 04:22:00,33.1,30.2,30.21,NNE,22,0.0,0.0,89,0.00,,SKC,0.00,VWS V14.01,2013-03-11 08:22:00,
2013-03-11 04:24:00,32.9,30.0,30.21,NNE,22,0.0,0.0,89,0.00,,SKC,0.00,VWS V14.01,2013-03-11 08:24:00,
2013-03-11 04:26:00,33.1,30.2,30.21,NNE,22,0.0,0.0,89,0.00,,SKC,0.00,VWS V14.01,2013-03-11 08:26:00,
2013-03-11 04:27:00,32.9,30.0,30.21,NNE,22,0.0,0.0,89,0.00,,SKC,0.00,VWS V14.01,2013-03-11 08:27:00,
2013-03-11 04:28:00,32.9,30.0,30.21,NNE,22,0.0,0.0,89,0.00,,SKC,0.00,VWS V14.01,2013-03-11 08:28:00,
2013-03-11 04:30:00,32.9,30.0,30.21,NNE,22,0.0,0.0,89,0.00,,SKC,0.00,VWS V14.01,2013-03-11 08:30:00,
2013-03-11 04:32:00,32.9,30.0,30.21,East,90,0.0,0.0,89,0.00,,SKC,0.00,VWS V14.01,2013-03-11 08:32:00,
2013-03-11 04:34:00,32.7,29.8,30.21,East,90,0.0,0.0,89,0.00,,SKC,0.00,VWS V14.01,2013-03-11 08:34:00,
2013-03-11 04:36:00,32.9,30.0,30.21,East,90,0.0,0.0,89,0.00,,SKC,0.00,VWS V14.01,2013-03-11 08:36:00,
2013-03-11 04:37:00,32.9,30.3,30.21,East,90,0.0,0.0,90,0.00,,SKC,0.00,VWS V14.01,2013-03-11 08:37:00,
2013-03-11 04:38:00,32.9,30.3,30.21,East,90,0.0,0.0,90,0.00,,SKC,0.00,VWS V14.01,2013-03-11 08:38:00,
2013-03-11 04:40:00,32.7,29.8,30.21,East,90,0.0,0.0,89,0.00,,SKC,0.00,VWS V14.01,2013-03-11 08:40:00,
2013-03-11 04:42:00,32.5,29.7,30.21,East,90,0.0,0.0,89,0.00,,SKC,0.00,VWS V14.01,2013-03-11 08:42:00,
2013-03-11 04:44:00,32.5,29.7,30.21,ESE,112,0.0,0.0,89,0.00,,SKC,0.00,VWS V14.01,2013-03-11 08:44:00,
2013-03-11 04:46:00,32.4,29.5,30.21,ESE,112,0.0,0.0,89,0.00,,SKC,0.00,VWS V14.01,2013-03-11 08:46:00,
2013-03-11 04:47:00,32.2,29.3,30.21,ESE,112,0.0,0.0,89,0.00,,SKC,0.00,VWS V14.01,2013-03-11 08:47:00,
2013-03-11 04:48:00,32.2,29.3,30.21,ESE,112,0.0,0.0,89,0.00,,SKC,0.00,VWS V14.01,2013-03-11 08:48:00,
2013-03-11 04:50:00,32.2,29.3,30.21,SE,135,1.6,1.6,89,0.00,,SKC,0.00,VWS V14.01,2013-03-11 08:50:00,
2013-03-11 04:52:00,32.0,28.9,30.21,SE,135,1.6,1.6,88,0.00,,SKC,0.00,VWS V14.01,2013-03-11 08:52:00,
2013-03-11 04:54:00,32.0,28.9,30.21,SE,135,1.6,1.6,88,0.00,,SKC,0.00,VWS V14.01,2013-03-11 08:54:00,
2013-03-11 04:56:00,31.8,28.7,30.21,East,90,0.0,1.6,88,0.00,,SKC,0.00,VWS V14.01,2013-03-11 08:56:00,
2013-03-11 04:57:00,31.8,28.7,30.21,East,90,0.0,0.0,88,0.00,,SKC,0.00,VWS V14.01,2013-03-11 08:57:00,
2013-03-11 04:58:00,31.8,28.7,30.21,East,90,0.0,0.0,88,0.00,,SKC,0.00,VWS V14.01,2013-03-11 08:58:00,
2013-03-11 05:00:00,31.6,28.8,30.21,East,90,0.0,0.0,89,0.00,,SKC,0.00,VWS V14.01,2013-03-11 09:00:00,
2013-03-11 05:02:00,31.6,28.8,30.21,SSE,158,0.0,0.0,89,0.00,,SKC,0.00,VWS V14.01,2013-03-11 09:02:00,
2013-03-11 05:04:00,31.6,28.8,30.21,SSE,158,0.0,0.0,89,0.00,,SKC,0.00,VWS V14.01,2013-03-11 09:04:00,
2013-03-11 05:06:00,31.5,28.6,30.21,SE,135,1.6,1.6,89,0.00,,SKC,0.00,VWS V14.01,2013-03-11 09:06:00,
2013-03-11 05:07:00,31.5,28.6,30.21,SE,135,1.6,1.6,89,0.00,,SKC,0.00,VWS V14.01,2013-03-11 09:07:00,
2013-03-11 05:08:00,31.5,28.6,30.21,SE,135,1.6,1.6,89,0.00,,SKC,0.00,VWS V14.01,2013-03-11 09:08:00,
2013-03-11 05:10:00,31.5,28.6,30.21,SE,135,1.6,1.6,89,0.00,,SKC,0.00,VWS V14.01,2013-03-11 09:10:00,
2013-03-11 05:12:00,31.6,28.8,30.21,SE,135,0.0,1.6,89,0.00,,SKC,0.00,VWS V14.01,2013-03-11 09:12:00,
2013-03-11 05:14:00,31.6,28.8,30.24,SE,135,0.0,0.0,89,0.00,,SKC,0.00,VWS V14.01,2013-03-11 09:14:00,
2013-03-11 05:16:00,31.5,28.6,30.24,SE,135,0.0,0.0,89,0.00,,SKC,0.00,VWS V14.01,2013-03-11 09:16:00,
2013-03-11 05:17:00,31.5,28.6,30.24,WNW,292,0.0,0.0,89,0.00,,SKC,0.00,VWS V14.01,2013-03-11 09:17:00,
2013-03-11 05:18:00,31.5,28.6,30.24,WNW,292,0.0,0.0,89,0.00,,SKC,0.00,VWS V14.01,2013-03-11 09:18:00,
2013-03-11 05:20:00,31.5,28.6,30.24,WNW,292,0.0,0.0,89,0.00,,SKC,0.00,VWS V14.01,2013-03-11 09:20:00,
2013-03-11 05:22:00,31.6,29.0,30.24,WNW,292,0.0,0.0,90,0.00,,SKC,0.00,VWS V14.01,2013-03-11 09:22:00,
2013-03-11 05:23:00,31.6,29.0,30.24,WNW,292,0.0,0.0,90,0.00,,SKC,0.00,VWS V14.01,2013-03-11 09:23:00,
2013-03-11 05:24:00,31.6,29.0,30.24,WNW,292,0.0,0.0,90,0.00,,SKC,0.00,VWS V14.01,2013-03-11 09:24:00,
2013-03-11 05:26:00,31.5,28.9,30.24,WNW,292,0.0,0.0,90,0.00,,SKC,0.00,VWS V14.01,2013-03-11 09:26:00,
2013-03-11 05:28:00,31.5,28.9,30.24,WNW,292,0.0,0.0,90,0.00,,SKC,0.00,VWS V14.01,2013-03-11 09:28:00,
2013-03-11 05:30:00,31.5,28.9,30.21,WNW,292,0.0,0.0,90,0.00,,SKC,0.00,VWS V14.01,2013-03-11 09:30:00,
2013-03-11 05:32:00,31.3,28.7,30.21,WNW,292,0.0,0.0,90,0.00,,SKC,0.00,VWS V14.01,2013-03-11 09:32:00,
2013-03-11 05:34:00,31.3,28.7,30.21,WNW,292,0.0,0.0,90,0.00,,SKC,0.00,VWS V14.01,2013-03-11 09:34:00,
2013-03-11 05:36:00,31.3,28.7,30.21,NW,315,0.0,0.0,90,0.00,,SKC,0.00,VWS V14.01,2013-03-11 09:36:00,
2013-03-11 05:38:00,31.3,28.7,30.21,NW,315,0.0,0.0,90,0.00,,SKC,0.00,VWS V14.01,2013-03-11 09:38:00,
2013-03-11 05:40:00,31.3,28.7,30.21,NW,315,0.0,0.0,90,0.00,,SKC,0.00,VWS V14.01,2013-03-11 09:40:00,
2013-03-11 05:42:00,31.3,28.7,30.21,North,0,0.0,0.0,90,0.00,,SKC,0.00,VWS V14.01,2013-03-11 09:42:00,
2013-03-11 05:43:00,31.3,28.7,30.21,NNE,22,0.0,0.0,90,0.00,,SKC,0.00,VWS V14.01,2013-03-11 09:43:00,
2013-03-11 05:44:00,31.3,28.7,30.21,NNE,22,0.0,0.0,90,0.00,,SKC,0.00,VWS V14.01,2013-03-11 09:44:00,
2013-03-11 05:46:00,31.3,28.7,30.21,NNE,22,0.0,0.0,90,0.00,,SKC,0.00,VWS V14.01,2013-03-11 09:46:00,
2013-03-11 05:48:00,31.5,29.1,30.21,NNE,22,0.0,0.0,91,0.00,,SKC,0.00,VWS V14.01,2013-03-11 09:48:00,
2013-03-11 05:50:00,31.6,29.3,30.21,NNE,22,0.0,0.0,91,0.00,,SKC,0.00,VWS V14.01,2013-03-11 09:50:00,
2013-03-11 05:52:00,31.6,29.3,30.21,NNE,22,0.0,0.0,91,0.00,,SKC,0.00,VWS V14.01,2013-03-11 09:52:00,
2013-03-11 05:53:00,31.6,29.3,30.21,NNE,22,0.0,0.0,91,0.00,,SKC,0.00,VWS V14.01,2013-03-11 09:53:00,
2013-03-11 05:54:00,31.8,29.5,30.21,NNE,22,0.0,0.0,91,0.00,,SKC,0.00,VWS V14.01,2013-03-11 09:54:00,
2013-03-11 05:56:00,32.0,29.9,30.21,North,0,0.0,0.0,92,0.00,,SKC,0.00,VWS V14.01,2013-03-11 09:56:00,
2013-03-11 05:58:00,32.2,30.1,30.21,North,0,0.0,0.0,92,0.00,,SKC,0.00,VWS V14.01,2013-03-11 09:58:00,
2013-03-11 06:00:00,32.2,30.1,30.21,NNE,22,0.0,0.0,92,0.00,,SKC,0.00,VWS V14.01,2013-03-11 10:00:00,
2013-03-11 06:02:00,32.4,30.3,30.21,NNE,22,0.0,0.0,92,0.00,,SKC,0.00,VWS V14.01,2013-03-11 10:02:00,
2013-03-11 06:03:00,32.5,30.5,30.21,NNE,22,0.0,0.0,92,0.00,,SKC,0.00,VWS V14.01,2013-03-11 10:03:00,
2013-03-11 06:04:00,32.5,30.8,30.21,NNE,22,0.0,0.0,93,0.00,,SKC,0.00,VWS V14.01,2013-03-11 10:04:00,
2013-03-11 06:06:00,32.7,30.9,30.21,NNE,22,0.0,0.0,93,0.00,,SKC,0.00,VWS V14.01,2013-03-11 10:06:00,
2013-03-11 06:07:00,32.7,30.9,30.21,NNE,22,0.0,0.0,93,0.00,,SKC,0.00,VWS V14.01,2013-03-11 10:07:00,
2013-03-11 06:09:00,32.9,31.1,30.21,NNE,22,0.0,0.0,93,0.00,,SKC,0.00,VWS V14.01,2013-03-11 10:09:00,
2013-03-11 06:10:00,32.9,31.1,30.21,NNE,22,0.0,0.0,93,0.00,,SKC,0.00,VWS V14.01,2013-03-11 10:10:00,
2013-03-11 06:11:00,32.9,31.1,30.21,NNE,22,0.0,0.0,93,0.00,,SKC,0.00,VWS V14.01,2013-03-11 10:11:00,
2013-03-11 06:12:00,33.1,31.3,30.21,NNE,22,0.0,0.0,93,0.00,,SKC,0.00,VWS V14.01,2013-03-11 10:12:00,
2013-03-11 06:13:00,33.1,31.3,30.21,NNE,22,0.0,0.0,93,0.00,,SKC,0.00,VWS V14.01,2013-03-11 10:13:00,
2013-03-11 06:14:00,33.1,31.3,30.21,NNE,22,0.0,0.0,93,0.00,,SKC,0.00,VWS V14.01,2013-03-11 10:14:00,
2013-03-11 06:15:00,33.1,31.3,30.21,NNE,22,0.0,0.0,93,0.00,,SKC,0.00,VWS V14.01,2013-03-11 10:15:00,
2013-03-11 06:16:00,33.1,31.3,30.21,NNE,22,0.0,0.0,93,0.00,,SKC,0.00,VWS V14.01,2013-03-11 10:16:00,
2013-03-11 06:17:00,33.1,31.3,30.21,NNE,22,0.0,0.0,93,0.00,,SKC,0.00,VWS V14.01,2013-03-11 10:17:00,
2013-03-11 06:18:00,33.1,31.3,30.21,NNE,22,0.0,0.0,93,0.00,,SKC,0.00,VWS V14.01,2013-03-11 10:18:00,
2013-03-11 06:19:00,33.1,31.3,30.21,NNE,22,0.0,0.0,93,0.00,,SKC,0.00,VWS V14.01,2013-03-11 10:19:00,
2013-03-11 06:20:00,33.3,31.5,30.21,NNE,22,0.0,0.0,93,0.00,,SKC,0.00,VWS V14.01,2013-03-11 10:20:00,
2013-03-11 06:21:00,33.3,31.5,30.21,NNE,22,0.0,0.0,93,0.00,,SKC,0.00,VWS V14.01,2013-03-11 10:21:00,
2013-03-11 06:22:00,33.3,31.5,30.21,NNE,22,0.0,0.0,93,0.00,,SKC,0.00,VWS V14.01,2013-03-11 10:22:00,
2013-03-11 06:23:00,33.3,31.5,30.21,NNE,22,0.0,0.0,93,0.00,,SKC,0.00,VWS V14.01,2013-03-11 10:23:00,
2013-03-11 06:25:00,33.4,31.9,30.21,NNE,22,0.0,0.0,94,0.00,,SKC,0.00,VWS V14.01,2013-03-11 10:25:00,
2013-03-11 06:26:00,33.4,31.9,30.21,SE,135,0.0,0.0,94,0.00,,SKC,0.00,VWS V14.01,2013-03-11 10:26:00,
2013-03-11 06:27:00,33.6,32.1,30.21,SE,135,0.0,0.0,94,0.00,,SKC,0.00,VWS V14.01,2013-03-11 10:27:00,
2013-03-11 06:28:00,33.6,32.1,30.21,SE,135,0.0,0.0,94,0.00,,SKC,0.00,VWS V14.01,2013-03-11 10:28:00,
2013-03-11 06:29:00,33.6,32.1,30.21,SE,135,0.0,0.0,94,0.00,,SKC,0.00,VWS V14.01,2013-03-11 10:29:00,
2013-03-11 06:30:00,33.6,32.1,30.21,SE,135,0.0,0.0,94,0.00,,SKC,0.00,VWS V14.01,2013-03-11 10:30:00,
2013-03-11 06:31:00,33.6,32.1,30.21,SE,135,0.0,0.0,94,0.00,,SKC,0.00,VWS V14.01,2013-03-11 10:31:00,
2013-03-11 06:32:00,33.6,32.1,30.21,SE,135,0.0,0.0,94,0.00,,SKC,0.00,VWS V14.01,2013-03-11 10:32:00,
2013-03-11 06:33:00,33.6,32.1,30.21,SE,135,0.0,0.0,94,0.00,,SKC,0.00,VWS V14.01,2013-03-11 10:33:00,
2013-03-11 06:34:00,33.6,32.1,30.21,SE,135,0.0,0.0,94,0.00,,SKC,0.00,VWS V14.01,2013-03-11 10:34:00,
2013-03-11 06:35:00,33.6,31.8,30.21,SE,135,0.0,0.0,93,0.00,,SKC,0.00,VWS V14.01,2013-03-11 10:35:00,
2013-03-11 06:36:00,33.6,31.8,30.21,SE,135,0.0,0.0,93,0.00,,SKC,0.00,VWS V14.01,2013-03-11 10:36:00,
2013-03-11 06:37:00,33.6,31.8,30.21,SE,135,2.7,2.7,93,0.00,,SKC,0.00,VWS V14.01,2013-03-11 10:37:00,
2013-03-11 06:38:00,33.6,31.8,30.21,SE,135,2.7,2.7,93,0.00,,SKC,0.00,VWS V14.01,2013-03-11 10:38:00,
2013-03-11 06:39:00,33.6,31.8,30.21,ESE,112,2.7,2.7,93,0.00,,SKC,0.00,VWS V14.01,2013-03-11 10:39:00,
2013-03-11 06:41:00,33.6,31.8,30.21,SE,135,2.2,2.7,93,0.00,,SKC,0.00,VWS V14.01,2013-03-11 10:41:00,
2013-03-11 06:42:00,33.6,31.8,30.21,SE,135,2.2,2.7,93,0.00,,SKC,0.00,VWS V14.01,2013-03-11 10:42:00,
2013-03-11 06:43:00,33.6,31.8,30.21,SE,135,2.2,2.7,93,0.00,,SKC,0.00,VWS V14.01,2013-03-11 10:43:00,
2013-03-11 06:44:00,33.6,31.8,30.21,SE,135,2.7,2.7,93,0.00,,SKC,0.00,VWS V14.01,2013-03-11 10:44:00,
2013-03-11 06:45:00,33.6,31.8,30.21,SE,135,2.7,2.7,93,0.00,,SKC,0.00,VWS V14.01,2013-03-11 10:45:00,
2013-03-11 06:46:00,33.6,31.8,30.21,SE,135,2.7,2.7,93,0.00,,SKC,0.00,VWS V14.01,2013-03-11 10:46:00,
2013-03-11 06:47:00,33.8,31.7,30.21,SE,135,2.7,2.7,92,0.00,,SKC,0.00,VWS V14.01,2013-03-11 10:47:00,
2013-03-11 06:48:00,33.8,32.0,30.21,SE,135,2.5,2.7,93,0.00,,SKC,0.00,VWS V14.01,2013-03-11 10:48:00,
2013-03-11 06:49:00,33.8,32.0,30.21,SE,135,1.6,2.7,93,0.00,,SKC,0.00,VWS V14.01,2013-03-11 10:49:00,
2013-03-11 06:50:00,34.0,32.2,30.21,SE,135,2.5,2.7,93,0.00,,SKC,0.00,VWS V14.01,2013-03-11 10:50:00,
2013-03-11 06:51:00,34.0,32.2,30.21,SE,135,2.5,2.7,93,0.00,,SKC,0.00,VWS V14.01,2013-03-11 10:51:00,
2013-03-11 06:52:00,34.0,32.2,30.21,SE,135,2.5,2.7,93,0.00,,SKC,0.00,VWS V14.01,2013-03-11 10:52:00,
2013-03-11 06:54:00,34.2,32.3,30.21,SE,135,2.5,2.5,93,0.00,,SKC,0.00,VWS V14.01,2013-03-11 10:54:00,
2013-03-11 06:56:00,34.2,32.3,30.21,SE,135,3.1,3.1,93,0.00,,SKC,0.00,VWS V14.01,2013-03-11 10:56:00,
2013-03-11 06:57:00,34.2,32.3,30.21,ESE,112,2.5,3.1,93,0.00,,SKC,0.00,VWS V14.01,2013-03-11 10:57:00,
2013-03-11 06:58:00,34.2,32.3,30.21,ESE,112,2.5,3.1,93,0.00,,SKC,0.00,VWS V14.01,2013-03-11 10:58:00,
2013-03-11 07:00:00,34.2,32.3,30.21,ESE,112,2.5,2.9,93,0.00,,SKC,0.00,VWS V14.01,2013-03-11 11:00:00,
2013-03-11 07:02:00,34.3,32.5,30.21,ESE,112,2.7,3.1,93,0.00,,SKC,0.00,VWS V14.01,2013-03-11 11:02:00,
2013-03-11 07:04:00,34.3,32.5,30.21,SE,135,2.9,2.9,93,0.00,,SKC,0.00,VWS V14.01,2013-03-11 11:04:00,
2013-03-11 07:06:00,34.3,32.5,30.21,SE,135,2.0,2.7,93,0.00,,SKC,0.00,VWS V14.01,2013-03-11 11:06:00,
2013-03-11 07:07:00,34.3,32.5,30.21,SE,135,2.7,2.7,93,0.00,,SKC,0.00,VWS V14.01,2013-03-11 11:07:00,
2013-03-11 07:08:00,34.3,32.5,30.21,SE,135,2.7,2.7,93,0.00,,SKC,0.00,VWS V14.01,2013-03-11 11:08:00,
2013-03-11 07:10:00,34.2,32.3,30.21,SE,135,2.7,2.7,93,0.00,,SKC,0.00,VWS V14.01,2013-03-11 11:10:00,
2013-03-11 07:12:00,34.2,32.3,30.21,SE,135,2.7,2.7,93,0.00,,SKC,0.00,VWS V14.01,2013-03-11 11:12:00,
2013-03-11 07:14:00,34.0,32.2,30.21,SE,135,2.7,2.7,93,0.00,,SKC,0.00,VWS V14.01,2013-03-11 11:14:00,
2013-03-11 07:16:00,33.8,32.0,30.21,ESE,112,1.6,2.7,93,0.00,,SKC,0.00,VWS V14.01,2013-03-11 11:16:00,
2013-03-11 07:17:00,33.8,31.7,30.21,ESE,112,1.6,2.7,92,0.00,,SKC,0.00,VWS V14.01,2013-03-11 11:17:00,
2013-03-11 07:18:00,33.8,31.7,30.21,ESE,112,1.6,1.6,92,0.00,,SKC,0.00,VWS V14.01,2013-03-11 11:18:00,
2013-03-11 07:20:00,33.8,31.7,30.21,SE,135,1.6,1.6,92,0.00,,SKC,0.00,VWS V14.01,2013-03-11 11:20:00,
2013-03-11 07:22:00,33.6,31.5,30.21,ESE,112,2.2,2.2,92,0.00,,SKC,0.00,VWS V14.01,2013-03-11 11:22:00,
2013-03-11 07:24:00,33.6,31.5,30.21,ESE,112,2.2,2.2,92,0.00,,SKC,0.00,VWS V14.01,2013-03-11 11:24:00,
2013-03-11 07:26:00,33.4,31.4,30.21,ESE,112,2.2,2.2,92,0.00,,SKC,0.00,VWS V14.01,2013-03-11 11:26:00,
2013-03-11 07:27:00,33.4,31.4,30.21,ESE,112,2.0,2.2,92,0.00,,SKC,0.00,VWS V14.01,2013-03-11 11:27:00,
2013-03-11 07:28:00,33.4,31.4,30.21,ESE,112,2.0,2.2,92,0.00,,SKC,0.00,VWS V14.01,2013-03-11 11:28:00,
2013-03-11 07:30:00,33.3,31.2,30.21,ESE,112,2.7,2.7,92,0.00,,SKC,0.00,VWS V14.01,2013-03-11 11:30:00,
2013-03-11 07:32:00,33.3,31.2,30.21,SE,135,2.5,2.7,92,0.00,,SKC,0.00,VWS V14.01,2013-03-11 11:32:00,
2013-03-11 07:34:00,33.3,31.2,30.21,SE,135,1.3,2.5,92,0.00,,SKC,0.00,VWS V14.01,2013-03-11 11:34:00,
2013-03-11 07:36:00,33.3,31.2,30.21,SE,135,1.3,1.3,92,0.00,,SKC,0.00,VWS V14.01,2013-03-11 11:36:00,
2013-03-11 07:37:00,33.3,31.2,30.21,SE,135,1.3,1.3,92,0.00,,SKC,0.00,VWS V14.01,2013-03-11 11:37:00,
2013-03-11 07:38:00,33.3,31.2,30.21,SE,135,1.3,1.3,92,0.00,,SKC,0.00,VWS V14.01,2013-03-11 11:38:00,
2013-03-11 07:40:00,33.3,31.2,30.21,SE,135,1.3,1.3,92,0.00,,SKC,0.00,VWS V14.01,2013-03-11 11:40:00,
2013-03-11 07:42:00,33.1,31.0,30.21,SE,135,1.6,2.2,92,0.00,,SKC,0.00,VWS V14.01,2013-03-11 11:42:00,
2013-03-11 07:44:00,33.1,31.0,30.21,SE,135,1.6,2.5,92,0.00,,SKC,0.00,VWS V14.01,2013-03-11 11:44:00,
2013-03-11 07:46:00,33.1,31.0,30.21,SE,135,2.2,2.2,92,0.00,,SKC,0.00,VWS V14.01,2013-03-11 11:46:00,
2013-03-11 07:47:00,33.1,31.0,30.21,SE,135,2.5,2.5,92,0.00,,SKC,0.00,VWS V14.01,2013-03-11 11:47:00,
2013-03-11 07:48:00,33.1,31.0,30.21,SE,135,2.2,2.5,92,0.00,,SKC,0.00,VWS V14.01,2013-03-11 11:48:00,
2013-03-11 07:50:00,33.3,31.2,30.21,SE,135,1.6,2.7,92,0.00,,SKC,0.00,VWS V14.01,2013-03-11 11:50:00,
2013-03-11 07:52:00,33.3,31.5,30.21,SE,135,0.0,0.0,93,0.00,,SKC,0.00,VWS V14.01,2013-03-11 11:52:00,
2013-03-11 07:54:00,33.3,31.5,30.21,SE,135,0.0,0.0,93,0.00,,SKC,0.00,VWS V14.01,2013-03-11 11:54:00,
2013-03-11 07:56:00,33.4,31.6,30.21,SE,135,2.5,2.5,93,0.00,,SKC,0.00,VWS V14.01,2013-03-11 11:56:00,
2013-03-11 07:57:00,33.6,32.1,30.21,SE,135,2.5,2.9,94,0.00,,SKC,0.00,VWS V14.01,2013-03-11 11:57:00,
2013-03-11 07:58:00,33.6,32.1,30.21,SE,135,2.0,2.9,94,0.00,,SKC,0.00,VWS V14.01,2013-03-11 11:58:00,
2013-03-11 08:00:00,33.6,32.1,30.21,SE,135,2.0,2.5,94,0.00,,SKC,0.00,VWS V14.01,2013-03-11 12:00:00,
2013-03-11 08:02:00,33.8,32.3,30.21,SE,135,2.0,2.5,94,0.00,,SKC,0.00,VWS V14.01,2013-03-11 12:02:00,
2013-03-11 08:04:00,33.8,32.3,30.21,SE,135,2.7,2.7,94,0.00,,SKC,0.00,VWS V14.01,2013-03-11 12:04:00,
2013-03-11 08:06:00,33.8,32.3,30.21,SE,135,2.2,2.5,94,0.00,,SKC,0.00,VWS V14.01,2013-03-11 12:06:00,
2013-03-11 08:07:00,34.0,32.4,30.21,SE,135,2.0,2.5,94,0.00,,SKC,0.00,VWS V14.01,2013-03-11 12:07:00,
2013-03-11 08:08:00,34.0,32.4,30.21,SE,135,2.0,2.5,94,0.00,,SKC,0.00,VWS V14.01,2013-03-11 12:08:00,
2013-03-11 08:10:00,34.0,32.4,30.21,SE,135,1.6,1.6,94,0.00,,SKC,0.00,VWS V14.01,2013-03-11 12:10:00,
2013-03-11 08:12:00,34.3,32.8,30.21,SE,135,3.1,3.1,94,0.00,,SKC,0.00,VWS V14.01,2013-03-11 12:12:00,
2013-03-11 08:14:00,34.3,32.8,30.21,SE,135,2.5,3.4,94,0.00,,SKC,0.00,VWS V14.01,2013-03-11 12:14:00,
2013-03-11 08:16:00,34.5,33.2,30.21,SE,135,2.0,2.9,95,0.00,,SKC,0.00,VWS V14.01,2013-03-11 12:16:00,
2013-03-11 08:17:00,34.7,33.4,30.21,SE,135,2.7,2.7,95,0.00,,SKC,0.00,VWS V14.01,2013-03-11 12:17:00,
2013-03-11 08:18:00,34.7,33.4,30.21,SE,135,2.7,2.7,95,0.00,,SKC,0.00,VWS V14.01,2013-03-11 12:18:00,
2013-03-11 08:20:00,35.1,33.8,30.21,SE,135,2.7,2.9,95,0.00,,SKC,0.00,VWS V14.01,2013-03-11 12:20:00,
2013-03-11 08:22:00,35.2,34.0,30.21,SE,135,3.1,3.1,95,0.00,,SKC,0.00,VWS V14.01,2013-03-11 12:22:00,
2013-03-11 08:24:00,35.4,34.1,30.21,SE,135,2.7,3.1,95,0.00,,SKC,0.00,VWS V14.01,2013-03-11 12:24:00,
2013-03-11 08:26:00,35.4,34.4,30.21,SE,135,3.1,3.1,96,0.00,,SKC,0.00,VWS V14.01,2013-03-11 12:26:00,
2013-03-11 08:28:00,35.6,34.3,30.21,SSE,158,3.1,3.1,95,0.00,,SKC,0.00,VWS V14.01,2013-03-11 12:28:00,
2013-03-11 08:30:00,36.0,34.7,30.21,SE,135,2.0,3.1,95,0.00,,SKC,0.00,VWS V14.01,2013-03-11 12:30:00,
2013-03-11 08:32:00,36.1,35.1,30.21,SE,135,3.6,3.8,96,0.00,,SKC,0.00,VWS V14.01,2013-03-11 12:32:00,
2013-03-11 08:33:00,36.3,35.3,30.21,SE,135,4.3,4.3,96,0.00,,SKC,0.00,VWS V14.01,2013-03-11 12:33:00,
2013-03-11 08:34:00,36.5,35.5,30.21,SSE,158,3.6,4.3,96,0.00,,SKC,0.00,VWS V14.01,2013-03-11 12:34:00,
2013-03-11 08:36:00,36.7,35.7,30.21,SE,135,4.3,4.3,96,0.00,,SKC,0.00,VWS V14.01,2013-03-11 12:36:00,
2013-03-11 08:38:00,37.0,36.0,30.21,SE,135,3.8,5.6,96,0.00,,SKC,0.00,VWS V14.01,2013-03-11 12:38:00,
2013-03-11 08:40:00,37.4,36.4,30.21,ESE,112,4.3,4.3,96,0.00,,SKC,0.08,VWS V14.01,2013-03-11 12:40:00,
2013-03-11 08:42:00,37.6,36.5,30.21,SE,135,7.4,7.4,96,0.00,,SKC,0.08,VWS V14.01,2013-03-11 12:42:00,
2013-03-11 08:44:00,37.9,36.9,30.21,SE,135,7.4,7.4,96,0.00,,SKC,0.08,VWS V14.01,2013-03-11 12:44:00,
2013-03-11 08:46:00,38.1,37.1,30.21,SE,135,6.3,6.7,96,0.00,,SKC,0.08,VWS V14.01,2013-03-11 12:46:00,
2013-03-11 08:48:00,38.3,37.3,30.21,East,90,5.6,5.6,96,0.00,,SKC,0.08,VWS V14.01,2013-03-11 12:48:00,
2013-03-11 08:50:00,38.7,37.6,30.21,SE,135,4.0,5.6,96,0.00,,SKC,0.08,VWS V14.01,2013-03-11 12:50:00,
2013-03-11 08:52:00,38.7,37.6,30.21,SE,135,6.5,6.7,96,0.00,,SKC,0.08,VWS V14.01,2013-03-11 12:52:00,
2013-03-11 08:53:00,38.8,37.8,30.21,ESE,112,4.9,6.7,96,0.00,,SKC,0.08,VWS V14.01,2013-03-11 12:53:00,
2013-03-11 08:54:00,38.8,37.8,30.21,SE,135,5.4,6.5,96,0.00,,SKC,0.08,VWS V14.01,2013-03-11 12:54:00,
2013-03-11 08:56:00,39.2,38.2,30.21,SE,135,4.9,7.8,96,0.00,,SKC,0.08,VWS V14.01,2013-03-11 12:56:00,
2013-03-11 08:58:00,39.6,38.5,30.21,SE,135,6.3,7.8,96,0.00,,SKC,0.08,VWS V14.01,2013-03-11 12:58:00,
2013-03-11 09:00:00,39.7,38.7,30.21,SSE,158,5.4,6.7,96,0.00,,SKC,0.08,VWS V14.01,2013-03-11 13:00:00,
2013-03-11 09:02:00,39.9,38.9,30.21,SSE,158,7.8,7.8,96,0.00,,SKC,0.08,VWS V14.01,2013-03-11 13:02:00,
2013-03-11 09:03:00,39.9,38.9,30.21,East,90,4.0,7.8,96,0.00,,SKC,0.08,VWS V14.01,2013-03-11 13:03:00,
2013-03-11 09:04:00,40.1,39.0,30.21,SSE,158,5.8,5.8,96,0.00,,SKC,0.08,VWS V14.01,2013-03-11 13:04:00,
2013-03-11 09:06:00,40.5,39.7,30.21,SSE,158,3.4,5.4,97,0.00,,SKC,0.08,VWS V14.01,2013-03-11 13:06:00,
2013-03-11 09:08:00,40.6,39.9,30.21,ESE,112,5.4,8.5,97,0.00,,SKC,0.08,VWS V14.01,2013-03-11 13:08:00,
2013-03-11 09:10:00,40.8,40.0,30.21,SE,135,6.0,6.0,97,0.00,,SKC,0.08,VWS V14.01,2013-03-11 13:10:00,
2013-03-11 09:12:00,41.0,40.0,30.21,SE,135,3.8,6.3,96,0.00,,SKC,0.08,VWS V14.01,2013-03-11 13:12:00,
2013-03-11 09:13:00,41.4,40.3,30.21,SE,135,6.0,7.2,96,0.00,,SKC,0.08,VWS V14.01,2013-03-11 13:13:00,
2013-03-11 09:14:00,41.4,40.3,30.21,ESE,112,7.6,7.6,96,0.00,,SKC,0.08,VWS V14.01,2013-03-11 13:14:00,
2013-03-11 09:16:00,41.7,40.7,30.21,SE,135,6.5,7.6,96,0.00,,SKC,0.08,VWS V14.01,2013-03-11 13:16:00,
2013-03-11 09:18:00,41.7,40.9,30.21,SE,135,4.7,8.1,97,0.00,,SKC,0.08,VWS V14.01,2013-03-11 13:18:00,
2013-03-11 09:20:00,42.1,41.3,30.21,ESE,112,6.0,8.1,97,0.00,,SKC,0.08,VWS V14.01,2013-03-11 13:20:00,
2013-03-11 09:22:00,42.3,41.2,30.21,SE,135,5.8,8.7,96,0.00,,SKC,0.08,VWS V14.01,2013-03-11 13:22:00,
2013-03-11 09:23:00,42.3,41.2,30.21,SE,135,8.7,8.7,96,0.00,,SKC,0.08,VWS V14.01,2013-03-11 13:23:00,
2013-03-11 09:24:00,42.3,41.2,30.21,SE,135,8.7,8.7,96,0.00,,SKC,0.08,VWS V14.01,2013-03-11 13:24:00,
2013-03-11 09:26:00,42.4,41.4,30.21,SE,135,5.6,6.3,96,0.00,,SKC,0.08,VWS V14.01,2013-03-11 13:26:00,
2013-03-11 09:28:00,42.6,41.6,30.21,SSE,158,6.0,6.0,96,0.00,,SKC,0.08,VWS V14.01,2013-03-11 13:28:00,
2013-03-11 09:30:00,42.6,41.6,30.21,SE,135,5.6,6.0,96,0.00,,SKC,0.08,VWS V14.01,2013-03-11 13:30:00,
2013-03-11 09:32:00,42.8,41.5,30.21,SE,135,5.8,6.3,95,0.00,,SKC,0.08,VWS V14.01,2013-03-11 13:32:00,
2013-03-11 09:33:00,42.8,41.5,30.21,SE,135,6.7,6.7,95,0.00,,SKC,0.08,VWS V14.01,2013-03-11 13:33:00,
2013-03-11 09:34:00,42.8,41.5,30.21,SE,135,6.3,6.7,95,0.00,,SKC,0.08,VWS V14.01,2013-03-11 13:34:00,
2013-03-11 09:36:00,43.0,41.7,30.21,SSE,158,6.0,7.8,95,0.00,,SKC,0.08,VWS V14.01,2013-03-11 13:36:00,
2013-03-11 09:38:00,43.2,41.5,30.21,SE,135,5.4,6.5,94,0.00,,SKC,0.08,VWS V14.01,2013-03-11 13:38:00,
2013-03-11 09:40:00,43.3,41.7,30.21,SSE,158,7.6,7.6,94,0.00,,SKC,0.08,VWS V14.01,2013-03-11 13:40:00,
2013-03-11 09:42:00,43.5,41.9,30.21,SSE,158,7.6,8.5,94,0.00,,SKC,0.08,VWS V14.01,2013-03-11 13:42:00,
2013-03-11 09:43:00,43.7,42.1,30.21,SE,135,8.1,8.1,94,0.00,,SKC,0.08,VWS V14.01,2013-03-11 13:43:00,
2013-03-11 09:44:00,43.7,42.1,30.21,SE,135,6.5,8.7,94,0.00,,SKC,0.08,VWS V14.01,2013-03-11 13:44:00,
2013-03-11 09:46:00,43.9,42.3,30.21,ESE,112,6.5,8.7,94,0.00,,SKC,0.08,VWS V14.01,2013-03-11 13:46:00,
2013-03-11 09:48:00,44.1,42.5,30.21,SE,135,6.5,6.5,94,0.00,,SKC,0.08,VWS V14.01,2013-03-11 13:48:00,
2013-03-11 09:50:00,44.4,42.5,30.21,SE,135,4.9,7.6,93,0.00,,SKC,0.08,VWS V14.01,2013-03-11 13:50:00,
2013-03-11 09:52:00,44.6,42.7,30.21,SE,135,6.5,6.7,93,0.00,,SKC,0.08,VWS V14.01,2013-03-11 13:52:00,
2013-03-11 09:53:00,45.0,43.1,30.21,SSE,158,6.3,9.0,93,0.00,,SKC,0.08,VWS V14.01,2013-03-11 13:53:00,
2013-03-11 09:54:00,45.0,43.1,30.21,SSE,158,6.0,9.0,93,0.00,,SKC,0.08,VWS V14.01,2013-03-11 13:54:00,
2013-03-11 09:56:00,45.1,43.0,30.21,SE,135,5.8,8.7,92,0.00,,SKC,0.08,VWS V14.01,2013-03-11 13:56:00,
2013-03-11 09:58:00,45.5,43.3,30.21,SE,135,6.0,6.3,92,0.00,,SKC,0.08,VWS V14.01,2013-03-11 13:58:00,
2013-03-11 10:00:00,45.7,43.5,30.21,SE,135,6.3,6.7,92,0.00,,SKC,0.08,VWS V14.01,2013-03-11 14:00:00,
2013-03-11 10:02:00,45.9,43.7,30.21,SE,135,4.9,6.7,92,0.00,,SKC,0.08,VWS V14.01,2013-03-11 14:02:00,
2013-03-11 10:03:00,45.9,43.4,30.21,SE,135,4.3,6.3,91,0.00,,SKC,0.08,VWS V14.01,2013-03-11 14:03:00,
2013-03-11 10:04:00,46.0,43.6,30.21,SE,135,6.3,6.3,91,0.00,,SKC,0.08,VWS V14.01,2013-03-11 14:04:00,
2013-03-11 10:06:00,46.0,43.3,30.21,SE,135,5.6,7.2,90,0.00,,SKC,0.08,VWS V14.01,2013-03-11 14:06:00,
2013-03-11 10:08:00,46.0,43.3,30.21,SE,135,4.9,6.3,90,0.00,,SKC,0.08,VWS V14.01,2013-03-11 14:08:00,
2013-03-11 10:10:00,46.0,43.0,30.21,SE,135,4.9,5.8,89,0.00,,SKC,0.08,VWS V14.01,2013-03-11 14:10:00,
2013-03-11 10:12:00,46.0,42.7,30.21,SE,135,3.6,5.6,88,0.00,,SKC,0.08,VWS V14.01,2013-03-11 14:12:00,
2013-03-11 10:13:00,46.2,42.9,30.21,South,180,4.0,5.8,88,0.00,,SKC,0.08,VWS V14.01,2013-03-11 14:13:00,
2013-03-11 10:14:00,46.2,42.9,30.21,ESE,112,1.1,5.4,88,0.00,,SKC,0.08,VWS V14.01,2013-03-11 14:14:00,
2013-03-11 10:16:00,46.4,42.8,30.21,SSE,158,3.6,4.3,87,0.00,,SKC,0.08,VWS V14.01,2013-03-11 14:16:00,
2013-03-11 10:18:00,46.8,43.1,30.21,SE,135,6.5,7.4,87,0.00,,SKC,0.08,VWS V14.01,2013-03-11 14:18:00,
2013-03-11 10:20:00,46.8,43.1,30.21,ESE,112,3.6,6.5,87,0.00,,SKC,0.08,VWS V14.01,2013-03-11 14:20:00,
2013-03-11 10:22:00,46.9,43.3,30.21,SSE,158,4.9,4.9,87,0.00,,SKC,0.08,VWS V14.01,2013-03-11 14:22:00,
2013-03-11 10:23:00,46.9,43.3,30.21,SE,135,3.1,4.9,87,0.00,,SKC,0.08,VWS V14.01,2013-03-11 14:23:00,
2013-03-11 10:24:00,46.9,43.3,30.21,SE,135,3.4,4.7,87,0.00,,SKC,0.08,VWS V14.01,2013-03-11 14:24:00,
2013-03-11 10:26:00,47.1,43.5,30.21,SE,135,6.5,6.5,87,0.00,,SKC,0.08,VWS V14.01,2013-03-11 14:26:00,
2013-03-11 10:28:00,47.3,43.3,30.21,SSE,158,3.1,4.9,86,0.00,,SKC,0.08,VWS V14.01,2013-03-11 14:28:00,
2013-03-11 10:30:00,47.3,43.3,30.21,SE,135,3.6,6.5,86,0.00,,SKC,0.08,VWS V14.01,2013-03-11 14:30:00,
2013-03-11 10:32:00,47.3,43.3,30.21,SE,135,5.8,6.5,86,0.00,,SKC,0.08,VWS V14.01,2013-03-11 14:32:00,
2013-03-11 10:33:00,47.3,43.3,30.21,SSE,158,4.9,6.0,86,0.00,,SKC,0.08,VWS V14.01,2013-03-11 14:33:00,
2013-03-11 10:34:00,47.3,43.3,30.21,South,180,6.3,6.3,86,0.00,,SKC,0.08,VWS V14.01,2013-03-11 14:34:00,
2013-03-11 10:36:00,47.3,43.0,30.21,SE,135,5.8,6.7,85,0.00,,SKC,0.08,VWS V14.01,2013-03-11 14:36:00,
2013-03-11 10:38:00,47.3,43.0,30.21,South,180,3.6,4.7,85,0.00,,SKC,0.08,VWS V14.01,2013-03-11 14:38:00,
2013-03-11 10:40:00,47.5,43.2,30.21,South,180,2.9,3.4,85,0.00,,SKC,0.08,VWS V14.01,2013-03-11 14:40:00,
2013-03-11 10:42:00,47.5,43.2,30.21,SE,135,4.7,6.3,85,0.00,,SKC,0.08,VWS V14.01,2013-03-11 14:42:00,
2013-03-11 10:43:00,47.7,43.4,30.21,SE,135,2.9,4.3,85,0.00,,SKC,0.08,VWS V14.01,2013-03-11 14:43:00,
2013-03-11 10:44:00,47.7,43.4,30.21,SSE,158,3.6,4.0,85,0.00,,SKC,0.08,VWS V14.01,2013-03-11 14:44:00,
2013-03-11 10:46:00,47.8,43.6,30.21,SE,135,4.9,6.3,85,0.00,,SKC,0.08,VWS V14.01,2013-03-11 14:46:00,
2013-03-11 10:48:00,47.8,43.2,30.21,SE,135,6.3,6.3,84,0.00,,SKC,0.08,VWS V14.01,2013-03-11 14:48:00,
2013-03-11 10:50:00,48.0,43.4,30.21,SE,135,4.9,6.5,84,0.00,,SKC,0.08,VWS V14.01,2013-03-11 14:50:00,
2013-03-11 10:52:00,48.0,43.4,30.21,SE,135,7.2,8.1,84,0.00,,SKC,0.08,VWS V14.01,2013-03-11 14:52:00,
2013-03-11 10:53:00,48.2,43.3,30.21,SSE,158,5.6,8.1,83,0.00,,SKC,0.08,VWS V14.01,2013-03-11 14:53:00,
2013-03-11 10:54:00,48.2,43.3,30.21,SSE,158,2.9,8.1,83,0.00,,SKC,0.08,VWS V14.01,2013-03-11 14:54:00,
2013-03-11 10:56:00,48.4,43.5,30.21,SSE,158,2.9,4.7,83,0.00,,SKC,0.08,VWS V14.01,2013-03-11 14:56:00,
2013-03-11 10:58:00,48.6,43.6,30.18,SE,135,3.8,3.8,83,0.00,,SKC,0.08,VWS V14.01,2013-03-11 14:58:00,
2013-03-11 11:00:00,48.7,43.8,30.18,SE,135,6.3,6.3,83,0.00,,SKC,0.08,VWS V14.01,2013-03-11 15:00:00,
2013-03-11 11:02:00,48.7,43.8,30.18,SSE,158,7.2,7.8,83,0.00,,SKC,0.08,VWS V14.01,2013-03-11 15:02:00,
2013-03-11 11:03:00,48.9,43.7,30.18,SE,135,5.4,9.8,82,0.00,,SKC,0.08,VWS V14.01,2013-03-11 15:03:00,
2013-03-11 11:04:00,48.9,43.7,30.18,SE,135,4.9,9.8,82,0.00,,SKC,0.08,VWS V14.01,2013-03-11 15:04:00,
2013-03-11 11:06:00,48.9,43.7,30.18,SE,135,6.3,8.7,82,0.00,,SKC,0.08,VWS V14.01,2013-03-11 15:06:00,
2013-03-11 11:08:00,49.1,43.5,30.18,ESE,112,6.5,6.5,81,0.00,,SKC,0.08,VWS V14.01,2013-03-11 15:08:00,
2013-03-11 11:10:00,49.1,43.5,30.18,SSE,158,4.9,6.5,81,0.00,,SKC,0.08,VWS V14.01,2013-03-11 15:10:00,
2013-03-11 11:12:00,49.3,43.7,30.18,SSE,158,7.4,8.1,81,0.00,,SKC,0.08,VWS V14.01,2013-03-11 15:12:00,
2013-03-11 11:13:00,49.5,43.9,30.21,SE,135,5.6,6.0,81,0.00,,SKC,0.08,VWS V14.01,2013-03-11 15:13:00,
2013-03-11 11:14:00,49.5,43.9,30.21,SE,135,5.6,6.0,81,0.00,,SKC,0.08,VWS V14.01,2013-03-11 15:14:00,
2013-03-11 11:16:00,49.6,44.4,30.21,SE,135,6.0,8.1,82,0.00,,SKC,0.08,VWS V14.01,2013-03-11 15:16:00,
2013-03-11 11:18:00,49.8,43.9,30.21,SE,135,4.3,7.8,80,0.00,,SKC,0.08,VWS V14.01,2013-03-11 15:18:00,
2013-03-11 11:20:00,49.8,43.9,30.21,SE,135,5.6,5.8,80,0.00,,SKC,0.08,VWS V14.01,2013-03-11 15:20:00,
2013-03-11 11:22:00,49.8,43.6,30.21,SSE,158,5.4,8.1,79,0.00,,SKC,0.08,VWS V14.01,2013-03-11 15:22:00,
2013-03-11 11:23:00,49.8,43.6,30.21,SSE,158,5.8,5.8,79,0.00,,SKC,0.08,VWS V14.01,2013-03-11 15:23:00,
2013-03-11 11:24:00,49.8,43.6,30.21,SSE,158,5.8,5.8,79,0.00,,SKC,0.08,VWS V14.01,2013-03-11 15:24:00,
2013-03-11 11:26:00,50.0,43.4,30.21,SE,135,3.1,4.9,78,0.00,,SKC,0.08,VWS V14.01,2013-03-11 15:26:00,
2013-03-11 11:28:00,50.2,43.9,30.21,SE,135,5.6,6.0,79,0.00,,SKC,0.08,VWS V14.01,2013-03-11 15:28:00,
2013-03-11 11:30:00,50.4,44.1,30.21,SE,135,8.5,8.5,79,0.00,,SKC,0.08,VWS V14.01,2013-03-11 15:30:00,
2013-03-11 11:32:00,50.5,44.3,30.21,SE,135,6.5,8.7,79,0.00,,SKC,0.08,VWS V14.01,2013-03-11 15:32:00,
2013-03-11 11:33:00,50.5,44.3,30.21,SE,135,7.6,8.7,79,0.00,,SKC,0.08,VWS V14.01,2013-03-11 15:33:00,
2013-03-11 11:34:00,50.5,44.3,30.21,SE,135,7.6,8.7,79,0.00,,SKC,0.08,VWS V14.01,2013-03-11 15:34:00,
2013-03-11 11:36:00,50.7,44.5,30.21,SSE,158,7.4,7.8,79,0.00,,SKC,0.08,VWS V14.01,2013-03-11 15:36:00,
2013-03-11 11:38:00,50.7,44.1,30.21,SSE,158,3.6,8.5,78,0.00,,SKC,0.08,VWS V14.01,2013-03-11 15:38:00,
2013-03-11 11:40:00,50.9,44.3,30.21,SE,135,8.5,8.5,78,0.00,,SKC,0.08,VWS V14.01,2013-03-11 15:40:00,
2013-03-11 11:42:00,50.9,44.3,30.21,SE,135,5.8,9.6,78,0.00,,SKC,0.08,VWS V14.01,2013-03-11 15:42:00,
2013-03-11 11:43:00,50.9,44.0,30.21,SSE,158,5.8,6.3,77,0.00,,SKC,0.08,VWS V14.01,2013-03-11 15:43:00,
2013-03-11 11:44:00,50.9,44.0,30.21,SSE,158,5.8,6.3,77,0.00,,SKC,0.08,VWS V14.01,2013-03-11 15:44:00,
2013-03-11 11:46:00,51.1,44.1,30.21,SSE,158,6.5,6.5,77,0.00,,SKC,0.08,VWS V14.01,2013-03-11 15:46:00,
2013-03-11 11:48:00,51.3,44.3,30.21,SE,135,4.3,5.6,77,0.00,,SKC,0.08,VWS V14.01,2013-03-11 15:48:00,
2013-03-11 11:50:00,51.3,44.3,30.21,SE,135,5.8,5.8,77,0.00,,SKC,0.08,VWS V14.01,2013-03-11 15:50:00,
2013-03-11 11:52:00,51.3,44.0,30.21,SE,135,7.6,8.1,76,0.00,,SKC,0.08,VWS V14.01,2013-03-11 15:52:00,
2013-03-11 11:53:00,51.3,44.0,30.21,SSE,158,3.6,6.3,76,0.00,,SKC,0.08,VWS V14.01,2013-03-11 15:53:00,
2013-03-11 11:54:00,51.3,44.0,30.21,SSE,158,2.9,4.9,76,0.00,,SKC,0.08,VWS V14.01,2013-03-11 15:54:00,
2013-03-11 11:56:00,51.4,44.1,30.21,SE,135,8.5,8.5,76,0.00,,SKC,0.08,VWS V14.01,2013-03-11 15:56:00,
2013-03-11 11:58:00,51.6,44.3,30.21,SE,135,6.0,9.2,76,0.00,,SKC,0.08,VWS V14.01,2013-03-11 15:58:00,
2013-03-11 12:00:00,51.8,44.5,30.21,SSE,158,4.0,7.4,76,0.00,,SKC,0.08,VWS V14.01,2013-03-11 16:00:00,
2013-03-11 12:02:00,51.8,44.1,30.21,SE,135,5.8,8.1,75,0.00,,SKC,0.08,VWS V14.01,2013-03-11 16:02:00,
2013-03-11 12:03:00,52.0,44.3,30.21,East,90,8.7,8.7,75,0.00,,SKC,0.08,VWS V14.01,2013-03-11 16:03:00,
2013-03-11 12:04:00,52.0,44.3,30.21,East,90,8.7,8.7,75,0.00,,SKC,0.08,VWS V14.01,2013-03-11 16:04:00,
2013-03-11 12:06:00,52.0,44.3,30.21,SSE,158,5.8,8.5,75,0.00,,SKC,0.08,VWS V14.01,2013-03-11 16:06:00,
2013-03-11 12:08:00,52.0,44.3,30.21,South,180,5.6,10.7,75,0.00,,SKC,0.08,VWS V14.01,2013-03-11 16:08:00,
2013-03-11 12:09:00,52.0,44.3,30.21,SE,135,8.5,10.3,75,0.00,,SKC,0.08,VWS V14.01,2013-03-11 16:09:00,
2013-03-11 12:10:00,52.0,44.3,30.21,SE,135,8.1,10.3,75,0.00,,SKC,0.08,VWS V14.01,2013-03-11 16:10:00,
2013-03-11 12:12:00,52.2,44.5,30.21,SE,135,4.3,6.0,75,0.00,,SKC,0.08,VWS V14.01,2013-03-11 16:12:00,
2013-03-11 12:14:00,52.2,44.5,30.18,SE,135,8.7,11.4,75,0.00,,SKC,0.08,VWS V14.01,2013-03-11 16:14:00,
2013-03-11 12:16:00,52.3,44.7,30.18,SE,135,6.0,7.6,75,0.00,,SKC,0.08,VWS V14.01,2013-03-11 16:16:00,
2013-03-11 12:18:00,52.3,44.3,30.18,SSE,158,6.0,7.4,74,0.00,,SKC,0.08,VWS V14.01,2013-03-11 16:18:00,
2013-03-11 12:19:00,52.3,44.3,30.18,SE,135,7.8,10.3,74,0.00,,SKC,0.08,VWS V14.01,2013-03-11 16:19:00,
2013-03-11 12:20:00,52.3,44.3,30.18,SSE,158,7.4,10.3,74,0.00,,SKC,0.08,VWS V14.01,2013-03-11 16:20:00,
2013-03-11 12:22:00,52.2,44.1,30.18,SSE,158,8.5,11.0,74,0.00,,SKC,0.08,VWS V14.01,2013-03-11 16:22:00,
2013-03-11 12:23:00,52.2,43.8,30.18,SE,135,8.1,8.5,73,0.00,,SKC,0.08,VWS V14.01,2013-03-11 16:23:00,
2013-03-11 12:24:00,52.2,43.8,30.18,SSE,158,8.7,8.7,73,0.00,,SKC,0.08,VWS V14.01,2013-03-11 16:24:00,
2013-03-11 12:26:00,52.2,43.8,30.18,SE,135,9.8,11.0,73,0.00,,SKC,0.08,VWS V14.01,2013-03-11 16:26:00,
2013-03-11 12:28:00,52.2,43.8,30.18,SE,135,6.0,8.7,73,0.00,,SKC,0.08,VWS V14.01,2013-03-11 16:28:00,
2013-03-11 12:29:00,52.2,43.8,30.18,SE,135,5.4,8.7,73,0.00,,SKC,0.08,VWS V14.01,2013-03-11 16:29:00,
2013-03-11 12:30:00,52.2,43.8,30.18,ESE,112,5.6,8.7,73,0.00,,SKC,0.08,VWS V14.01,2013-03-11 16:30:00,
2013-03-11 12:32:00,52.2,44.1,30.18,SSE,158,6.0,7.8,74,0.00,,SKC,0.08,VWS V14.01,2013-03-11 16:32:00,
2013-03-11 12:34:00,52.3,44.3,30.18,ESE,112,10.3,11.4,74,0.00,,SKC,0.08,VWS V14.01,2013-03-11 16:34:00,
2013-03-11 12:36:00,52.3,44.3,30.18,SSE,158,5.8,8.7,74,0.00,,SKC,0.08,VWS V14.01,2013-03-11 16:36:00,
2013-03-11 12:38:00,52.5,44.5,30.18,SSE,158,7.4,8.7,74,0.00,,SKC,0.08,VWS V14.01,2013-03-11 16:38:00,
2013-03-11 12:39:00,52.7,44.7,30.18,SE,135,8.7,9.2,74,0.00,,SKC,0.08,VWS V14.01,2013-03-11 16:39:00,
2013-03-11 12:40:00,52.7,44.7,30.18,SE,135,6.0,9.2,74,0.00,,SKC,0.08,VWS V14.01,2013-03-11 16:40:00,
2013-03-11 12:42:00,52.9,44.8,30.18,South,180,6.0,10.1,74,0.00,,SKC,0.08,VWS V14.01,2013-03-11 16:42:00,
2013-03-11 12:44:00,53.1,45.4,30.18,South,180,6.3,11.9,75,0.00,,SKC,0.08,VWS V14.01,2013-03-11 16:44:00,
2013-03-11 12:46:00,53.2,45.5,30.18,SE,135,10.3,10.3,75,0.00,,SKC,0.08,VWS V14.01,2013-03-11 16:46:00,
2013-03-11 12:48:00,53.2,45.5,30.18,SE,135,9.4,10.3,75,0.00,,SKC,0.08,VWS V14.01,2013-03-11 16:48:00,
2013-03-11 12:49:00,53.2,45.2,30.18,SE,135,7.2,11.0,74,0.00,,SKC,0.08,VWS V14.01,2013-03-11 16:49:00,
2013-03-11 12:50:00,53.2,45.2,30.18,SE,135,11.9,11.9,74,0.00,,SKC,0.08,VWS V14.01,2013-03-11 16:50:00,
2013-03-11 12:52:00,53.4,45.7,30.18,South,180,5.4,11.0,75,0.00,,SKC,0.08,VWS V14.01,2013-03-11 16:52:00,
2013-03-11 12:54:00,53.6,45.9,30.18,SE,135,7.4,9.4,75,0.00,,SKC,0.08,VWS V14.01,2013-03-11 16:54:00,
2013-03-11 12:56:00,53.8,46.0,30.18,SSE,158,6.3,11.0,75,0.00,,SKC,0.08,VWS V14.01,2013-03-11 16:56:00,
2013-03-11 12:58:00,54.0,46.2,30.18,SE,135,6.0,10.5,75,0.00,,SKC,0.08,VWS V14.01,2013-03-11 16:58:00,
2013-03-11 12:59:00,54.0,45.9,30.18,SE,135,8.7,10.3,74,0.00,,SKC,0.08,VWS V14.01,2013-03-11 16:59:00,
2013-03-11 13:00:00,54.0,45.9,30.18,SE,135,10.3,10.5,74,0.00,,SKC,0.08,VWS V14.01,2013-03-11 17:00:00,
2013-03-11 13:02:00,53.8,45.3,30.18,SSE,158,5.8,8.7,73,0.00,,SKC,0.08,VWS V14.01,2013-03-11 17:02:00,
2013-03-11 13:04:00,54.0,45.9,30.18,SSE,158,6.0,9.2,74,0.00,,SKC,0.08,VWS V14.01,2013-03-11 17:04:00,
2013-03-11 13:06:00,54.1,46.0,30.18,SE,135,11.0,12.1,74,0.00,,SKC,0.08,VWS V14.01,2013-03-11 17:06:00,
2013-03-11 13:08:00,54.1,46.0,30.18,SE,135,4.9,7.4,74,0.00,,SKC,0.08,VWS V14.01,2013-03-11 17:08:00,
2013-03-11 13:10:00,54.3,46.2,30.18,SSE,158,4.3,6.3,74,0.00,,SKC,0.08,VWS V14.01,2013-03-11 17:10:00,
2013-03-11 13:12:00,54.5,46.4,30.18,SE,135,6.0,8.5,74,0.00,,SKC,0.08,VWS V14.01,2013-03-11 17:12:00,
2013-03-11 13:14:00,54.5,46.0,30.18,SSE,158,3.4,5.8,73,0.00,,SKC,0.08,VWS V14.01,2013-03-11 17:14:00,
2013-03-11 13:16:00,54.7,46.2,30.18,SSE,158,5.6,6.3,73,0.00,,SKC,0.08,VWS V14.01,2013-03-11 17:16:00,
2013-03-11 13:18:00,54.9,46.4,30.18,SE,135,6.0,7.2,73,0.00,,SKC,0.08,VWS V14.01,2013-03-11 17:18:00,
2013-03-11 13:19:00,54.9,46.4,30.18,SSE,158,4.7,6.0,73,0.00,,SKC,0.08,VWS V14.01,2013-03-11 17:19:00,
2013-03-11 13:20:00,55.0,46.5,30.18,SSW,202,4.0,5.8,73,0.00,,SKC,0.08,VWS V14.01,2013-03-11 17:20:00,
2013-03-11 13:22:00,55.0,46.5,30.18,SE,135,5.6,5.6,73,0.00,,SKC,0.08,VWS V14.01,2013-03-11 17:22:00,
2013-03-11 13:24:00,55.2,46.4,30.18,SE,135,4.9,4.9,72,0.00,,SKC,0.08,VWS V14.01,2013-03-11 17:24:00,
2013-03-11 13:26:00,55.2,46.4,30.18,South,180,3.4,5.8,72,0.00,,SKC,0.08,VWS V14.01,2013-03-11 17:26:00,
2013-03-11 13:28:00,55.2,46.4,30.18,South,180,2.7,5.8,72,0.00,,SKC,0.08,VWS V14.01,2013-03-11 17:28:00,
2013-03-11 13:30:00,55.2,46.4,30.18,SE,135,3.1,4.9,72,0.00,,SKC,0.08,VWS V14.01,2013-03-11 17:30:00,
2013-03-11 13:32:00,55.2,46.4,30.18,SE,135,2.9,5.8,72,0.00,,SKC,0.08,VWS V14.01,2013-03-11 17:32:00,
2013-03-11 13:34:00,55.2,46.4,30.18,SSW,202,2.7,4.9,72,0.00,,SKC,0.08,VWS V14.01,2013-03-11 17:34:00,
2013-03-11 13:36:00,55.0,45.8,30.18,SSE,158,6.0,6.0,71,0.00,,SKC,0.08,VWS V14.01,2013-03-11 17:36:00,
2013-03-11 13:38:00,55.0,45.8,30.18,SSE,158,5.6,6.5,71,0.00,,SKC,0.08,VWS V14.01,2013-03-11 17:38:00,
2013-03-11 13:40:00,55.0,45.8,30.18,South,180,4.7,10.7,71,0.00,,SKC,0.08,VWS V14.01,2013-03-11 17:40:00,
2013-03-11 13:42:00,54.9,45.7,30.18,SE,135,5.6,7.6,71,0.00,,SKC,0.08,VWS V14.01,2013-03-11 17:42:00,
2013-03-11 13:44:00,54.7,45.1,30.18,SE,135,4.9,5.8,70,0.00,,SKC,0.08,VWS V14.01,2013-03-11 17:44:00,
2013-03-11 13:46:00,54.7,45.1,30.18,SSE,158,5.4,5.4,70,0.00,,SKC,0.08,VWS V14.01,2013-03-11 17:46:00,
2013-03-11 13:48:00,54.5,44.9,30.18,SE,135,4.9,5.6,70,0.00,,SKC,0.08,VWS V14.01,2013-03-11 17:48:00,
2013-03-11 13:49:00,54.5,44.9,30.18,SE,135,5.8,6.0,70,0.00,,SKC,0.08,VWS V14.01,2013-03-11 17:49:00,
2013-03-11 13:50:00,54.5,44.9,30.18,SSE,158,7.2,8.7,70,0.00,,SKC,0.08,VWS V14.01,2013-03-11 17:50:00,
2013-03-11 13:52:00,54.3,44.8,30.18,SE,135,4.0,6.5,70,0.00,,SKC,0.08,VWS V14.01,2013-03-11 17:52:00,
2013-03-11 13:54:00,54.1,44.6,30.18,SSE,158,6.0,11.4,70,0.00,,SKC,0.08,VWS V14.01,2013-03-11 17:54:00,
2013-03-11 13:56:00,54.1,44.6,30.18,SE,135,10.1,10.1,70,0.00,,SKC,0.08,VWS V14.01,2013-03-11 17:56:00,
2013-03-11 13:58:00,54.0,44.4,30.18,SE,135,4.3,7.4,70,0.00,,SKC,0.08,VWS V14.01,2013-03-11 17:58:00,
2013-03-11 13:59:00,54.0,44.4,30.15,SSE,158,4.3,9.0,70,0.00,,SKC,0.08,VWS V14.01,2013-03-11 17:59:00,
2013-03-11 14:00:00,54.0,44.4,30.15,SSE,158,5.6,7.8,70,0.00,,SKC,0.08,VWS V14.01,2013-03-11 18:00:00,
2013-03-11 14:02:00,54.1,44.6,30.15,SE,135,7.4,7.4,70,0.00,,SKC,0.08,VWS V14.01,2013-03-11 18:02:00,
2013-03-11 14:04:00,54.3,45.1,30.15,SE,135,6.0,6.0,71,0.00,,SKC,0.08,VWS V14.01,2013-03-11 18:04:00,
2013-03-11 14:06:00,54.5,45.3,30.15,SE,135,7.4,8.1,71,0.00,,SKC,0.08,VWS V14.01,2013-03-11 18:06:00,
2013-03-11 14:08:00,54.5,44.9,30.15,SE,135,7.6,9.8,70,0.00,,SKC,0.08,VWS V14.01,2013-03-11 18:08:00,
2013-03-11 14:09:00,54.5,44.9,30.15,SE,135,10.1,11.0,70,0.00,,SKC,0.08,VWS V14.01,2013-03-11 18:09:00,
2013-03-11 14:10:00,54.5,44.9,30.15,SSE,158,6.3,11.0,70,0.00,,SKC,0.08,VWS V14.01,2013-03-11 18:10:00,
2013-03-11 14:12:00,54.5,44.9,30.15,SE,135,7.4,10.7,70,0.00,,SKC,0.08,VWS V14.01,2013-03-11 18:12:00,
2013-03-11 14:14:00,54.7,45.1,30.15,SSE,158,6.3,9.6,70,0.00,,SKC,0.08,VWS V14.01,2013-03-11 18:14:00,
2013-03-11 14:16:00,54.9,45.3,30.15,South,180,8.5,8.5,70,0.00,,SKC,0.08,VWS V14.01,2013-03-11 18:16:00,
2013-03-11 14:18:00,54.9,45.3,30.15,South,180,5.8,8.7,70,0.00,,SKC,0.08,VWS V14.01,2013-03-11 18:18:00,
2013-03-11 14:19:00,54.9,45.3,30.15,South,180,1.6,3.8,70,0.00,,SKC,0.08,VWS V14.01,2013-03-11 18:19:00,
2013-03-11 14:20:00,54.9,45.3,30.15,SE,135,2.9,3.8,70,0.00,,SKC,0.08,VWS V14.01,2013-03-11 18:20:00,
2013-03-11 14:22:00,55.0,45.8,30.15,SSE,158,3.4,3.8,71,0.00,,SKC,0.08,VWS V14.01,2013-03-11 18:22:00,
2013-03-11 14:24:00,55.0,45.5,30.15,SE,135,4.9,5.8,70,0.00,,SKC,0.08,VWS V14.01,2013-03-11 18:24:00,
2013-03-11 14:26:00,55.0,45.5,30.15,SE,135,4.0,4.9,70,0.00,,SKC,0.08,VWS V14.01,2013-03-11 18:26:00,
2013-03-11 14:28:00,55.0,45.5,30.15,South,180,5.6,5.6,70,0.00,,SKC,0.08,VWS V14.01,2013-03-11 18:28:00,
2013-03-11 14:29:00,55.0,45.5,30.15,SSE,158,5.6,5.6,70,0.00,,SKC,0.08,VWS V14.01,2013-03-11 18:29:00,
2013-03-11 14:30:00,55.0,45.5,30.15,SSE,158,4.7,5.6,70,0.00,,SKC,0.08,VWS V14.01,2013-03-11 18:30:00,
2013-03-11 14:32:00,55.0,45.5,30.15,SE,135,3.8,5.4,70,0.00,,SKC,0.08,VWS V14.01,2013-03-11 18:32:00,
2013-03-11 14:34:00,55.0,45.5,30.15,SE,135,11.0,11.0,70,0.00,,SKC,0.08,VWS V14.01,2013-03-11 18:34:00,
2013-03-11 14:36:00,55.0,45.5,30.15,SE,135,7.6,11.0,70,0.00,,SKC,0.08,VWS V14.01,2013-03-11 18:36:00,
2013-03-11 14:38:00,54.9,44.9,30.15,SE,135,5.4,5.8,69,0.00,,SKC,0.08,VWS V14.01,2013-03-11 18:38:00,
2013-03-11 14:39:00,54.7,44.7,30.15,SSE,158,4.3,6.5,69,0.00,,SKC,0.08,VWS V14.01,2013-03-11 18:39:00,
2013-03-11 14:40:00,54.7,44.7,30.15,SSE,158,4.9,4.9,69,0.00,,SKC,0.08,VWS V14.01,2013-03-11 18:40:00,
2013-03-11 14:42:00,54.5,44.5,30.15,South,180,4.5,4.5,69,0.00,,SKC,0.08,VWS V14.01,2013-03-11 18:42:00,
2013-03-11 14:44:00,54.5,44.5,30.12,SE,135,4.5,6.3,69,0.00,,SKC,0.08,VWS V14.01,2013-03-11 18:44:00,
2013-03-11 14:46:00,54.5,44.5,30.12,SE,135,8.1,9.8,69,0.00,,SKC,0.08,VWS V14.01,2013-03-11 18:46:00,
2013-03-11 14:48:00,54.5,44.5,30.12,SE,135,3.8,5.8,69,0.00,,SKC,0.08,VWS V14.01,2013-03-11 18:48:00,
2013-03-11 14:49:00,54.3,44.4,30.12,SE,135,8.7,9.8,69,0.00,,SKC,0.08,VWS V14.01,2013-03-11 18:49:00,
2013-03-11 14:50:00,54.3,44.4,30.12,SSE,158,8.1,9.8,69,0.00,,SKC,0.08,VWS V14.01,2013-03-11 18:50:00,
2013-03-11 14:52:00,54.3,44.4,30.12,SSE,158,5.8,8.7,69,0.00,,SKC,0.08,VWS V14.01,2013-03-11 18:52:00,
2013-03-11 14:54:00,54.3,44.4,30.12,SSE,158,5.8,7.8,69,0.00,,SKC,0.08,VWS V14.01,2013-03-11 18:54:00,
2013-03-11 14:56:00,54.3,44.4,30.12,SSE,158,7.8,12.3,69,0.00,,SKC,0.08,VWS V14.01,2013-03-11 18:56:00,
2013-03-11 14:58:00,54.1,44.2,30.12,SE,135,8.7,10.3,69,0.00,,SKC,0.08,VWS V14.01,2013-03-11 18:58:00,
2013-03-11 14:59:00,54.0,43.7,30.15,SE,135,6.0,8.5,68,0.00,,SKC,0.08,VWS V14.01,2013-03-11 18:59:00,
2013-03-11 15:00:00,54.0,43.7,30.15,SSE,158,4.9,8.5,68,0.00,,SKC,0.08,VWS V14.01,2013-03-11 19:00:00,
2013-03-11 15:02:00,53.8,43.9,30.15,South,180,6.5,8.5,69,0.00,,SKC,0.08,VWS V14.01,2013-03-11 19:02:00,
2013-03-11 15:04:00,53.8,43.9,30.15,SSE,158,7.4,11.0,69,0.00,,SKC,0.08,VWS V14.01,2013-03-11 19:04:00,
2013-03-11 15:06:00,53.8,43.9,30.15,SE,135,6.0,10.1,69,0.00,,SKC,0.08,VWS V14.01,2013-03-11 19:06:00,
2013-03-11 15:08:00,53.6,43.7,30.15,SE,135,11.0,11.0,69,0.00,,SKC,0.08,VWS V14.01,2013-03-11 19:08:00,
2013-03-11 15:09:00,53.6,43.7,30.15,SE,135,10.7,12.5,69,0.00,,SKC,0.08,VWS V14.01,2013-03-11 19:09:00,
2013-03-11 15:10:00,53.4,43.5,30.15,SE,135,8.1,12.5,69,0.00,,SKC,0.08,VWS V14.01,2013-03-11 19:10:00,
2013-03-11 15:12:00,53.4,43.5,30.15,SE,135,6.3,8.5,69,0.00,,SKC,0.08,VWS V14.01,2013-03-11 19:12:00,
2013-03-11 15:14:00,53.2,43.3,30.12,SE,135,9.4,11.4,69,0.00,,SKC,0.08,VWS V14.01,2013-03-11 19:14:00,
2013-03-11 15:16:00,53.2,43.3,30.12,SE,135,9.8,11.0,69,0.00,,SKC,0.08,VWS V14.01,2013-03-11 19:16:00,
2013-03-11 15:18:00,53.2,43.3,30.12,SE,135,10.1,10.5,69,0.00,,SKC,0.08,VWS V14.01,2013-03-11 19:18:00,
2013-03-11 15:19:00,53.2,43.3,30.12,SSE,158,7.8,10.1,69,0.00,,SKC,0.08,VWS V14.01,2013-03-11 19:19:00,
2013-03-11 15:20:00,53.2,43.3,30.12,SE,135,7.8,10.1,69,0.00,,SKC,0.08,VWS V14.01,2013-03-11 19:20:00,
2013-03-11 15:22:00,53.1,43.2,30.12,SSE,158,8.1,9.8,69,0.00,,SKC,0.08,VWS V14.01,2013-03-11 19:22:00,
2013-03-11 15:24:00,53.1,43.2,30.12,SSE,158,8.7,11.2,69,0.00,,SKC,0.08,VWS V14.01,2013-03-11 19:24:00,
2013-03-11 15:26:00,53.1,43.2,30.12,SSE,158,5.6,8.7,69,0.00,,SKC,0.08,VWS V14.01,2013-03-11 19:26:00,
2013-03-11 15:28:00,53.1,43.2,30.12,SE,135,7.8,10.5,69,0.00,,SKC,0.08,VWS V14.01,2013-03-11 19:28:00,
2013-03-11 15:29:00,53.1,43.2,30.15,SE,135,6.0,10.1,69,0.00,,SKC,0.08,VWS V14.01,2013-03-11 19:29:00,
2013-03-11 15:30:00,53.1,43.2,30.15,SE,135,6.0,10.1,69,0.00,,SKC,0.08,VWS V14.01,2013-03-11 19:30:00,
2013-03-11 15:32:00,53.1,43.5,30.15,South,180,8.5,9.6,70,0.00,,SKC,0.08,VWS V14.01,2013-03-11 19:32:00,
2013-03-11 15:34:00,53.1,43.5,30.15,SE,135,8.1,8.1,70,0.00,,SKC,0.08,VWS V14.01,2013-03-11 19:34:00,
2013-03-11 15:36:00,53.1,43.5,30.15,SE,135,8.1,10.3,70,0.00,,SKC,0.08,VWS V14.01,2013-03-11 19:36:00,
2013-03-11 15:38:00,53.1,43.5,30.15,SE,135,11.0,11.0,70,0.00,,SKC,0.08,VWS V14.01,2013-03-11 19:38:00,
2013-03-11 15:39:00,53.2,44.1,30.15,SSE,158,7.8,10.3,71,0.00,,SKC,0.08,VWS V14.01,2013-03-11 19:39:00,
2013-03-11 15:40:00,53.2,44.1,30.15,SE,135,6.0,9.8,71,0.00,,SKC,0.08,VWS V14.01,2013-03-11 19:40:00,
2013-03-11 15:42:00,53.2,43.7,30.15,SE,135,9.2,12.5,70,0.00,,SKC,0.08,VWS V14.01,2013-03-11 19:42:00,
2013-03-11 15:44:00,53.1,43.5,30.15,SSE,158,7.8,11.0,70,0.00,,SKC,0.08,VWS V14.01,2013-03-11 19:44:00,
2013-03-11 15:46:00,53.1,43.5,30.15,ESE,112,10.7,12.1,70,0.00,,SKC,0.08,VWS V14.01,2013-03-11 19:46:00,
2013-03-11 15:48:00,52.9,43.4,30.15,SE,135,9.0,10.5,70,0.00,,SKC,0.08,VWS V14.01,2013-03-11 19:48:00,
2013-03-11 15:50:00,52.9,43.4,30.15,SE,135,8.7,10.5,70,0.00,,SKC,0.08,VWS V14.01,2013-03-11 19:50:00,
2013-03-11 15:52:00,52.9,43.4,30.15,SE,135,8.1,14.1,70,0.00,,SKC,0.08,VWS V14.01,2013-03-11 19:52:00,
2013-03-11 15:54:00,52.7,43.2,30.15,SE,135,9.8,12.1,70,0.00,,SKC,0.08,VWS V14.01,2013-03-11 19:54:00,
2013-03-11 15:55:00,52.7,43.2,30.15,SSE,158,8.1,9.8,70,0.00,,SKC,0.08,VWS V14.01,2013-03-11 19:55:00,
2013-03-11 15:56:00,52.7,43.2,30.15,SE,135,7.8,9.0,70,0.00,,SKC,0.08,VWS V14.01,2013-03-11 19:56:00,
2013-03-11 15:58:00,52.7,43.2,30.15,SSE,158,7.4,10.5,70,0.00,,SKC,0.08,VWS V14.01,2013-03-11 19:58:00,
2013-03-11 16:00:00,52.7,43.2,30.15,SE,135,8.1,12.3,70,0.00,,SKC,0.08,VWS V14.01,2013-03-11 20:00:00,
2013-03-11 16:02:00,52.5,43.0,30.15,SSE,158,10.3,10.7,70,0.00,,SKC,0.08,VWS V14.01,2013-03-11 20:02:00,
2013-03-11 16:04:00,52.5,43.0,30.15,SE,135,9.0,9.8,70,0.00,,SKC,0.08,VWS V14.01,2013-03-11 20:04:00,
2013-03-11 16:05:00,52.7,43.6,30.15,SSE,158,7.8,10.1,71,0.00,,SKC,0.08,VWS V14.01,2013-03-11 20:05:00,
2013-03-11 16:06:00,52.7,43.6,30.15,SE,135,6.0,8.7,71,0.00,,SKC,0.08,VWS V14.01,2013-03-11 20:06:00,
2013-03-11 16:08:00,52.7,43.6,30.15,SE,135,8.7,8.7,71,0.00,,SKC,0.08,VWS V14.01,2013-03-11 20:08:00,
2013-03-11 16:10:00,52.5,43.4,30.15,SSE,158,9.8,11.0,71,0.00,,SKC,0.08,VWS V14.01,2013-03-11 20:10:00,
2013-03-11 16:12:00,52.5,43.4,30.15,South,180,8.7,9.8,71,0.00,,SKC,0.08,VWS V14.01,2013-03-11 20:12:00,
2013-03-11 16:14:00,52.5,43.4,30.15,SE,135,6.7,9.8,71,0.00,,SKC,0.08,VWS V14.01,2013-03-11 20:14:00,
2013-03-11 16:15:00,52.5,43.4,30.15,SSE,158,4.0,9.8,71,0.00,,SKC,0.08,VWS V14.01,2013-03-11 20:15:00,
2013-03-11 16:16:00,52.5,43.4,30.15,SSE,158,7.8,8.1,71,0.00,,SKC,0.08,VWS V14.01,2013-03-11 20:16:00,
2013-03-11 16:18:00,52.5,43.4,30.15,South,180,4.9,7.8,71,0.00,,SKC,0.08,VWS V14.01,2013-03-11 20:18:00,
2013-03-11 16:20:00,52.5,43.4,30.15,SSE,158,1.6,3.8,71,0.00,,SKC,0.08,VWS V14.01,2013-03-11 20:20:00,
2013-03-11 16:22:00,52.5,43.4,30.15,WSW,248,3.8,6.5,71,0.00,,SKC,0.08,VWS V14.01,2013-03-11 20:22:00,
2013-03-11 16:24:00,52.3,43.2,30.15,SSE,158,4.3,4.9,71,0.00,,SKC,0.08,VWS V14.01,2013-03-11 20:24:00,
2013-03-11 16:25:00,52.3,43.2,30.15,SSE,158,3.8,5.6,71,0.00,,SKC,0.08,VWS V14.01,2013-03-11 20:25:00,
2013-03-11 16:26:00,52.3,43.2,30.15,SE,135,3.6,5.6,71,0.00,,SKC,0.08,VWS V14.01,2013-03-11 20:26:00,
2013-03-11 16:28:00,52.3,43.2,30.15,SE,135,4.3,4.3,71,0.00,,SKC,0.08,VWS V14.01,2013-03-11 20:28:00,
2013-03-11 16:30:00,52.2,43.1,30.15,SE,135,6.5,10.1,71,0.00,,SKC,0.08,VWS V14.01,2013-03-11 20:30:00,
2013-03-11 16:32:00,52.2,43.1,30.15,SE,135,5.4,8.1,71,0.00,,SKC,0.08,VWS V14.01,2013-03-11 20:32:00,
2013-03-11 16:34:00,52.0,42.9,30.15,SE,135,7.2,10.3,71,0.00,,SKC,0.08,VWS V14.01,2013-03-11 20:34:00,
2013-03-11 16:35:00,52.0,42.9,30.15,SSE,158,7.4,7.8,71,0.00,,SKC,0.08,VWS V14.01,2013-03-11 20:35:00,
2013-03-11 16:36:00,52.0,42.9,30.15,SSE,158,6.3,7.4,71,0.00,,SKC,0.08,VWS V14.01,2013-03-11 20:36:00,
2013-03-11 16:38:00,51.8,42.7,30.15,SSE,158,8.5,10.1,71,0.00,,SKC,0.08,VWS V14.01,2013-03-11 20:38:00,
2013-03-11 16:40:00,51.8,42.7,30.15,SE,135,7.4,8.1,71,0.00,,SKC,0.08,VWS V14.01,2013-03-11 20:40:00,
2013-03-11 16:42:00,51.6,42.9,30.15,SE,135,4.9,5.6,72,0.00,,SKC,0.08,VWS V14.01,2013-03-11 20:42:00,
2013-03-11 16:44:00,51.6,42.9,30.12,SSE,158,4.3,6.3,72,0.00,,SKC,0.08,VWS V14.01,2013-03-11 20:44:00,
2013-03-11 16:45:00,51.6,42.9,30.12,SSE,158,3.4,4.3,72,0.00,,SKC,0.08,VWS V14.01,2013-03-11 20:45:00,
2013-03-11 16:46:00,51.6,42.9,30.12,SE,135,4.7,5.4,72,0.00,,SKC,0.08,VWS V14.01,2013-03-11 20:46:00,
2013-03-11 16:48:00,51.6,42.9,30.12,SSE,158,9.8,9.8,72,0.00,,SKC,0.08,VWS V14.01,2013-03-11 20:48:00,
2013-03-11 16:50:00,51.6,42.9,30.12,South,180,6.0,8.1,72,0.00,,SKC,0.08,VWS V14.01,2013-03-11 20:50:00,
2013-03-11 16:52:00,51.4,42.7,30.12,SSE,158,4.3,5.6,72,0.00,,SKC,0.08,VWS V14.01,2013-03-11 20:52:00,
2013-03-11 16:54:00,51.4,42.7,30.12,SSE,158,5.4,5.6,72,0.00,,SKC,0.08,VWS V14.01,2013-03-11 20:54:00,
2013-03-11 16:55:00,51.4,42.7,30.12,SSE,158,4.0,5.4,72,0.00,,SKC,0.08,VWS V14.01,2013-03-11 20:55:00,
2013-03-11 16:56:00,51.4,42.7,30.12,SSE,158,5.6,5.6,72,0.00,,SKC,0.08,VWS V14.01,2013-03-11 20:56:00,
2013-03-11 16:58:00,51.4,42.7,30.12,SE,135,2.7,4.7,72,0.00,,SKC,0.08,VWS V14.01,2013-03-11 20:58:00,
2013-03-11 17:00:00,51.3,42.5,30.12,SSE,158,5.8,7.8,72,0.00,,SKC,0.08,VWS V14.01,2013-03-11 21:00:00,
2013-03-11 17:02:00,51.3,42.9,30.12,SE,135,7.8,9.8,73,0.00,,SKC,0.08,VWS V14.01,2013-03-11 21:02:00,
2013-03-11 17:04:00,51.3,42.9,30.12,SE,135,5.8,6.7,73,0.00,,SKC,0.08,VWS V14.01,2013-03-11 21:04:00,
2013-03-11 17:05:00,51.1,42.7,30.12,SSE,158,5.4,6.9,73,0.00,,SKC,0.08,VWS V14.01,2013-03-11 21:05:00,
2013-03-11 17:06:00,51.1,42.7,30.12,SSE,158,8.5,8.5,73,0.00,,SKC,0.08,VWS V14.01,2013-03-11 21:06:00,
2013-03-11 17:08:00,51.1,42.7,30.12,SSE,158,6.3,8.5,73,0.00,,SKC,0.08,VWS V14.01,2013-03-11 21:08:00,
2013-03-11 17:10:00,50.9,42.6,30.12,SE,135,2.7,6.3,73,0.00,,SKC,0.08,VWS V14.01,2013-03-11 21:10:00,
2013-03-11 17:12:00,50.9,42.6,30.12,SE,135,4.9,6.5,73,0.00,,SKC,0.08,VWS V14.01,2013-03-11 21:12:00,
2013-03-11 17:14:00,50.9,42.6,30.15,SE,135,3.6,6.5,73,0.00,,SKC,0.08,VWS V14.01,2013-03-11 21:14:00,
2013-03-11 17:15:00,50.9,42.6,30.15,South,180,4.3,6.5,73,0.00,,SKC,0.08,VWS V14.01,2013-03-11 21:15:00,
2013-03-11 17:16:00,50.7,42.4,30.15,SE,135,3.1,4.3,73,0.00,,SKC,0.08,VWS V14.01,2013-03-11 21:16:00,
2013-03-11 17:18:00,50.7,42.8,30.15,South,180,3.1,3.1,74,0.00,,SKC,0.08,VWS V14.01,2013-03-11 21:18:00,
2013-03-11 17:20:00,50.7,42.8,30.15,South,180,3.1,3.1,74,0.00,,SKC,0.08,VWS V14.01,2013-03-11 21:20:00,
2013-03-11 17:22:00,50.7,42.8,30.15,SSE,158,3.8,3.8,74,0.00,,SKC,0.08,VWS V14.01,2013-03-11 21:22:00,
2013-03-11 17:24:00,50.5,42.6,30.15,SSE,158,4.3,4.9,74,0.00,,SKC,0.08,VWS V14.01,2013-03-11 21:24:00,
2013-03-11 17:25:00,50.5,42.6,30.15,SSE,158,4.3,4.9,74,0.00,,SKC,0.08,VWS V14.01,2013-03-11 21:25:00,
2013-03-11 17:26:00,50.5,42.6,30.15,SE,135,3.6,4.3,74,0.00,,SKC,0.08,VWS V14.01,2013-03-11 21:26:00,
2013-03-11 17:28:00,50.5,42.6,30.15,SE,135,4.9,4.9,74,0.00,,SKC,0.08,VWS V14.01,2013-03-11 21:28:00,
2013-03-11 17:30:00,50.4,42.4,30.12,SE,135,4.9,4.9,74,0.00,,SKC,0.08,VWS V14.01,2013-03-11 21:30:00,
2013-03-11 17:32:00,50.2,42.2,30.12,SE,135,4.9,4.9,74,0.00,,SKC,0.08,VWS V14.01,2013-03-11 21:32:00,
2013-03-11 17:34:00,50.2,42.2,30.12,SE,135,7.4,8.5,74,0.00,,SKC,0.08,VWS V14.01,2013-03-11 21:34:00,
2013-03-11 17:35:00,50.2,42.2,30.12,SE,135,5.4,7.6,74,0.00,,SKC,0.08,VWS V14.01,2013-03-11 21:35:00,
2013-03-11 17:36:00,50.0,42.0,30.12,SE,135,5.4,7.6,74,0.00,,SKC,0.08,VWS V14.01,2013-03-11 21:36:00,
2013-03-11 17:38:00,50.0,42.0,30.12,SE,135,8.5,8.5,74,0.00,,SKC,0.08,VWS V14.01,2013-03-11 21:38:00,
2013-03-11 17:40:00,49.8,42.2,30.12,SE,135,8.5,8.5,75,0.00,,SKC,0.08,VWS V14.01,2013-03-11 21:40:00,
2013-03-11 17:42:00,49.6,42.0,30.12,SE,135,7.8,9.8,75,0.00,,SKC,0.08,VWS V14.01,2013-03-11 21:42:00,
2013-03-11 17:44:00,49.6,42.0,30.12,SE,135,7.8,7.8,75,0.00,,SKC,0.08,VWS V14.01,2013-03-11 21:44:00,
2013-03-11 17:45:00,49.5,41.9,30.12,SE,135,3.4,7.8,75,0.00,,SKC,0.08,VWS V14.01,2013-03-11 21:45:00,
2013-03-11 17:46:00,49.5,41.9,30.12,South,180,5.4,6.0,75,0.00,,SKC,0.08,VWS V14.01,2013-03-11 21:46:00,
2013-03-11 17:48:00,49.5,41.9,30.12,SE,135,6.5,6.5,75,0.00,,SKC,0.08,VWS V14.01,2013-03-11 21:48:00,
2013-03-11 17:50:00,49.3,41.7,30.12,SSE,158,6.0,6.5,75,0.00,,SKC,0.08,VWS V14.01,2013-03-11 21:50:00,
2013-03-11 17:52:00,49.3,41.7,30.12,SSE,158,6.0,6.0,75,0.00,,SKC,0.08,VWS V14.01,2013-03-11 21:52:00,
2013-03-11 17:54:00,49.1,41.5,30.12,SSE,158,6.0,6.0,75,0.00,,SKC,0.08,VWS V14.01,2013-03-11 21:54:00,
2013-03-11 17:55:00,49.1,41.9,30.12,SE,135,6.5,6.5,76,0.00,,SKC,0.08,VWS V14.01,2013-03-11 21:55:00,
2013-03-11 17:56:00,49.1,41.9,30.12,SSE,158,8.1,8.1,76,0.00,,SKC,0.08,VWS V14.01,2013-03-11 21:56:00,
2013-03-11 17:58:00,48.9,41.7,30.12,SE,135,8.1,8.1,76,0.00,,SKC,0.08,VWS V14.01,2013-03-11 21:58:00,
2013-03-11 18:00:00,48.9,41.7,30.12,South,180,6.0,8.7,76,0.00,,SKC,0.08,VWS V14.01,2013-03-11 22:00:00,
2013-03-11 18:02:00,48.7,41.5,30.12,SE,135,6.0,8.7,76,0.00,,SKC,0.08,VWS V14.01,2013-03-11 22:02:00,
2013-03-11 18:04:00,48.7,41.5,30.12,SE,135,7.4,8.1,76,0.00,,SKC,0.08,VWS V14.01,2013-03-11 22:04:00,
2013-03-11 18:05:00,48.7,41.5,30.12,SE,135,11.2,11.2,76,0.00,,SKC,0.08,VWS V14.01,2013-03-11 22:05:00,
2013-03-11 18:06:00,48.7,41.5,30.12,SE,135,11.2,11.2,76,0.00,,SKC,0.08,VWS V14.01,2013-03-11 22:06:00,
2013-03-11 18:08:00,48.7,41.9,30.12,SE,135,11.2,11.2,77,0.00,,SKC,0.08,VWS V14.01,2013-03-11 22:08:00,
2013-03-11 18:10:00,48.6,41.7,30.12,SE,135,6.9,11.2,77,0.00,,SKC,0.08,VWS V14.01,2013-03-11 22:10:00,
2013-03-11 18:12:00,48.6,41.7,30.12,SE,135,6.5,7.8,77,0.00,,SKC,0.08,VWS V14.01,2013-03-11 22:12:00,
2013-03-11 18:14:00,48.6,42.0,30.12,SSE,158,6.3,8.7,78,0.00,,SKC,0.08,VWS V14.01,2013-03-11 22:14:00,
2013-03-11 18:15:00,48.4,41.8,30.12,SE,135,7.8,8.7,78,0.00,,SKC,0.08,VWS V14.01,2013-03-11 22:15:00,
2013-03-11 18:16:00,48.4,41.8,30.12,SE,135,7.8,7.8,78,0.00,,SKC,0.08,VWS V14.01,2013-03-11 22:16:00,
2013-03-11 18:18:00,48.4,41.8,30.12,SE,135,7.8,7.8,78,0.00,,SKC,0.08,VWS V14.01,2013-03-11 22:18:00,
2013-03-11 18:20:00,48.4,41.8,30.12,SE,135,7.4,7.8,78,0.00,,SKC,0.08,VWS V14.01,2013-03-11 22:20:00,
2013-03-11 18:22:00,48.4,41.8,30.12,SE,135,8.7,11.0,78,0.00,,SKC,0.08,VWS V14.01,2013-03-11 22:22:00,
2013-03-11 18:24:00,48.4,41.8,30.12,SE,135,8.7,8.7,78,0.00,,SKC,0.08,VWS V14.01,2013-03-11 22:24:00,
2013-03-11 18:25:00,48.2,42.0,30.12,SE,135,8.7,8.7,79,0.00,,SKC,0.08,VWS V14.01,2013-03-11 22:25:00,
2013-03-11 18:26:00,48.2,42.0,30.12,SE,135,8.7,8.7,79,0.00,,SKC,0.08,VWS V14.01,2013-03-11 22:26:00,
2013-03-11 18:28:00,48.2,42.0,30.12,SSE,158,6.0,8.7,79,0.00,,SKC,0.08,VWS V14.01,2013-03-11 22:28:00,
2013-03-11 18:30:00,48.2,42.3,30.12,SE,135,8.1,8.1,80,0.00,,SKC,0.08,VWS V14.01,2013-03-11 22:30:00,
2013-03-11 18:32:00,48.2,42.3,30.12,SSE,158,7.2,8.1,80,0.00,,SKC,0.08,VWS V14.01,2013-03-11 22:32:00,
2013-03-11 18:34:00,48.2,42.3,30.12,South,180,6.3,9.8,80,0.00,,SKC,0.08,VWS V14.01,2013-03-11 22:34:00,
2013-03-11 18:35:00,48.2,42.3,30.12,SE,135,6.0,9.8,80,0.00,,SKC,0.08,VWS V14.01,2013-03-11 22:35:00,
2013-03-11 18:36:00,48.2,42.3,30.12,SE,135,8.7,8.7,80,0.00,,SKC,0.08,VWS V14.01,2013-03-11 22:36:00,
2013-03-11 18:38:00,48.0,42.5,30.12,SE,135,8.7,8.7,81,0.00,,SKC,0.08,VWS V14.01,2013-03-11 22:38:00,
2013-03-11 18:40:00,48.0,42.2,30.12,SE,135,8.7,8.7,80,0.00,,SKC,0.08,VWS V14.01,2013-03-11 22:40:00,
2013-03-11 18:42:00,48.0,42.5,30.12,SE,135,7.6,8.7,81,0.00,,SKC,0.08,VWS V14.01,2013-03-11 22:42:00,
2013-03-11 18:44:00,48.0,42.5,30.12,SE,135,7.4,7.8,81,0.00,,SKC,0.08,VWS V14.01,2013-03-11 22:44:00,
2013-03-11 18:45:00,48.0,42.5,30.12,SE,135,7.4,7.4,81,0.00,,SKC,0.08,VWS V14.01,2013-03-11 22:45:00,
2013-03-11 18:46:00,48.0,42.5,30.12,SE,135,7.4,7.4,81,0.00,,SKC,0.08,VWS V14.01,2013-03-11 22:46:00,
2013-03-11 18:48:00,47.8,42.0,30.12,SE,135,5.8,7.4,80,0.00,,SKC,0.08,VWS V14.01,2013-03-11 22:48:00,
2013-03-11 18:50:00,47.8,42.3,30.12,SE,135,5.8,5.8,81,0.00,,SKC,0.08,VWS V14.01,2013-03-11 22:50:00,
2013-03-11 18:52:00,47.8,42.3,30.12,SE,135,5.8,5.8,81,0.00,,SKC,0.08,VWS V14.01,2013-03-11 22:52:00,
2013-03-11 18:54:00,47.8,42.3,30.12,SE,135,9.6,9.6,81,0.00,,SKC,0.08,VWS V14.01,2013-03-11 22:54:00,
2013-03-11 18:55:00,47.7,42.1,30.12,SE,135,9.6,9.6,81,0.00,,SKC,0.08,VWS V14.01,2013-03-11 22:55:00,
2013-03-11 18:56:00,47.7,42.1,30.12,SE,135,7.8,9.6,81,0.00,,SKC,0.08,VWS V14.01,2013-03-11 22:56:00,
2013-03-11 18:58:00,47.7,42.1,30.12,SE,135,7.6,7.8,81,0.00,,SKC,0.08,VWS V14.01,2013-03-11 22:58:00,
2013-03-11 19:00:00,47.5,42.0,30.09,SE,135,9.6,12.1,81,0.00,,SKC,0.08,VWS V14.01,2013-03-11 23:00:00,
2013-03-11 19:02:00,47.5,42.0,30.09,SE,135,7.4,9.6,81,0.00,,SKC,0.08,VWS V14.01,2013-03-11 23:02:00,
2013-03-11 19:04:00,47.5,42.0,30.09,SE,135,6.5,7.4,81,0.00,,SKC,0.08,VWS V14.01,2013-03-11 23:04:00,
2013-03-11 19:05:00,47.5,42.0,30.09,ESE,112,9.2,9.2,81,0.00,,SKC,0.08,VWS V14.01,2013-03-11 23:05:00,
2013-03-11 19:06:00,47.3,41.8,30.09,ESE,112,9.2,9.2,81,0.00,,SKC,0.08,VWS V14.01,2013-03-11 23:06:00,
2013-03-11 19:08:00,47.3,42.1,30.09,ESE,112,9.2,9.2,82,0.00,,SKC,0.08,VWS V14.01,2013-03-11 23:08:00,
2013-03-11 19:10:00,47.3,42.1,30.09,ESE,112,6.0,9.2,82,0.00,,SKC,0.08,VWS V14.01,2013-03-11 23:10:00,
2013-03-11 19:12:00,47.3,42.1,30.09,ESE,112,6.0,6.0,82,0.00,,SKC,0.08,VWS V14.01,2013-03-11 23:12:00,
2013-03-11 19:14:00,47.1,41.9,30.06,SE,135,8.5,8.5,82,0.00,,SKC,0.08,VWS V14.01,2013-03-11 23:14:00,
2013-03-11 19:15:00,47.1,41.9,30.06,SE,135,8.5,8.5,82,0.00,,SKC,0.08,VWS V14.01,2013-03-11 23:15:00,
2013-03-11 19:16:00,47.1,41.9,30.06,SE,135,8.5,8.5,82,0.00,,SKC,0.08,VWS V14.01,2013-03-11 23:16:00,
2013-03-11 19:18:00,47.1,41.9,30.06,SE,135,8.5,8.5,82,0.00,,SKC,0.08,VWS V14.01,2013-03-11 23:18:00,
2013-03-11 19:20:00,46.9,41.7,30.06,SE,135,7.2,8.5,82,0.00,,SKC,0.08,VWS V14.01,2013-03-11 23:20:00,
2013-03-11 19:22:00,46.8,41.6,30.06,SE,135,5.8,7.2,82,0.00,,SKC,0.08,VWS V14.01,2013-03-11 23:22:00,
2013-03-11 19:24:00,46.8,41.6,30.06,SE,135,4.9,5.8,82,0.00,,SKC,0.08,VWS V14.01,2013-03-11 23:24:00,
2013-03-11 19:25:00,46.8,41.6,30.06,SE,135,6.0,8.1,82,0.00,,SKC,0.08,VWS V14.01,2013-03-11 23:25:00,
2013-03-11 19:26:00,46.6,41.4,30.06,SE,135,6.0,8.1,82,0.00,,SKC,0.08,VWS V14.01,2013-03-11 23:26:00,
2013-03-11 19:28:00,46.6,41.4,30.06,SE,135,10.5,10.5,82,0.00,,SKC,0.08,VWS V14.01,2013-03-11 23:28:00,
2013-03-11 19:30:00,46.4,41.5,30.09,SE,135,6.3,6.3,83,0.00,,SKC,0.08,VWS V14.01,2013-03-11 23:30:00,
2013-03-11 19:32:00,46.4,41.5,30.09,SE,135,8.1,8.1,83,0.00,,SKC,0.08,VWS V14.01,2013-03-11 23:32:00,
2013-03-11 19:34:00,46.2,41.3,30.09,SE,135,8.1,8.1,83,0.00,,SKC,0.08,VWS V14.01,2013-03-11 23:34:00,
2013-03-11 19:35:00,46.2,41.3,30.09,SE,135,8.1,8.1,83,0.00,,SKC,0.08,VWS V14.01,2013-03-11 23:35:00,
2013-03-11 19:36:00,46.2,41.3,30.09,SE,135,8.1,8.1,83,0.00,,SKC,0.08,VWS V14.01,2013-03-11 23:36:00,
2013-03-11 19:38:00,46.2,41.3,30.09,SE,135,8.1,8.1,83,0.00,,SKC,0.08,VWS V14.01,2013-03-11 23:38:00,
2013-03-11 19:40:00,46.0,41.5,30.09,SE,135,8.1,8.1,84,0.00,,SKC,0.08,VWS V14.01,2013-03-11 23:40:00,
2013-03-11 19:42:00,46.0,41.5,30.09,SE,135,8.7,8.7,84,0.00,,SKC,0.08,VWS V14.01,2013-03-11 23:42:00,
2013-03-11 19:44:00,45.9,41.3,30.09,SSE,158,9.8,9.8,84,0.00,,SKC,0.08,VWS V14.01,2013-03-11 23:44:00,
2013-03-11 19:45:00,45.9,41.3,30.09,SSE,158,9.8,9.8,84,0.00,,SKC,0.08,VWS V14.01,2013-03-11 23:45:00,
2013-03-11 19:46:00,45.9,41.3,30.09,SSE,158,9.8,9.8,84,0.00,,SKC,0.08,VWS V14.01,2013-03-11 23:46:00,
2013-03-11 19:48:00,45.9,41.3,30.09,SSE,158,8.5,9.8,84,0.00,,SKC,0.08,VWS V14.01,2013-03-11 23:48:00,
2013-03-11 19:50:00,45.7,41.4,30.09,SE,135,8.7,10.7,85,0.00,,SKC,0.08,VWS V14.01,2013-03-11 23:50:00,
2013-03-11 19:52:00,45.7,41.4,30.09,SE,135,8.7,8.7,85,0.00,,SKC,0.08,VWS V14.01,2013-03-11 23:52:00,
2013-03-11 19:54:00,45.7,41.4,30.09,SE,135,9.6,9.6,85,0.00,,SKC,0.08,VWS V14.01,2013-03-11 23:54:00,
2013-03-11 19:56:00,45.7,41.4,30.09,ESE,112,7.4,9.6,85,0.00,,SKC,0.08,VWS V14.01,2013-03-11 23:56:00,
2013-03-11 19:58:00,45.5,41.3,30.09,SSE,158,5.4,7.4,85,0.00,,SKC,0.08,VWS V14.01,2013-03-11 23:58:00,
2013-03-11 20:00:00,45.5,41.6,30.09,SE,135,7.6,8.7,86,0.00,,SKC,0.08,VWS V14.01,2013-03-12 00:00:00,
2013-03-11 20:01:00,45.5,41.6,30.09,SE,135,7.6,7.8,86,0.00,,SKC,0.08,VWS V14.01,2013-03-12 00:01:00,
2013-03-11 20:02:00,45.5,41.6,30.09,SE,135,7.6,7.6,86,0.00,,SKC,0.08,VWS V14.01,2013-03-12 00:02:00,
2013-03-11 20:04:00,45.5,41.6,30.09,SE,135,7.8,7.8,86,0.00,,SKC,0.08,VWS V14.01,2013-03-12 00:04:00,
2013-03-11 20:06:00,45.5,41.6,30.09,SSE,158,6.5,10.5,86,0.00,,SKC,0.08,VWS V14.01,2013-03-12 00:06:00,
2013-03-11 20:08:00,45.5,41.6,30.09,SE,135,6.3,8.1,86,0.00,,SKC,0.08,VWS V14.01,2013-03-12 00:08:00,
2013-03-11 20:10:00,45.5,41.6,30.09,SSE,158,8.1,9.8,86,0.00,,SKC,0.08,VWS V14.01,2013-03-12 00:10:00,
2013-03-11 20:11:00,45.5,41.6,30.09,SSE,158,8.1,8.1,86,0.00,,SKC,0.08,VWS V14.01,2013-03-12 00:11:00,
2013-03-11 20:12:00,45.3,41.7,30.09,SE,135,7.6,8.1,87,0.00,,SKC,0.08,VWS V14.01,2013-03-12 00:12:00,
2013-03-11 20:14:00,45.3,41.7,30.09,SE,135,7.6,7.6,87,0.00,,SKC,0.08,VWS V14.01,2013-03-12 00:14:00,
2013-03-11 20:16:00,45.3,41.7,30.09,SE,135,7.6,7.8,87,0.00,,SKC,0.08,VWS V14.01,2013-03-12 00:16:00,
2013-03-11 20:18:00,45.5,41.9,30.09,SE,135,7.6,7.6,87,0.00,,SKC,0.08,VWS V14.01,2013-03-12 00:18:00,
2013-03-11 20:20:00,45.3,41.7,30.09,SE,135,8.1,8.1,87,0.00,,SKC,0.08,VWS V14.01,2013-03-12 00:20:00,
2013-03-11 20:21:00,45.3,41.7,30.09,SSE,158,8.7,8.7,87,0.00,,SKC,0.08,VWS V14.01,2013-03-12 00:21:00,
2013-03-11 20:22:00,45.3,41.7,30.09,SSE,158,8.7,8.7,87,0.00,,SKC,0.08,VWS V14.01,2013-03-12 00:22:00,
2013-03-11 20:24:00,45.3,42.0,30.09,SE,135,7.6,8.7,88,0.00,,SKC,0.08,VWS V14.01,2013-03-12 00:24:00,
2013-03-11 20:26:00,45.5,42.2,30.09,SE,135,7.6,7.6,88,0.00,,SKC,0.08,VWS V14.01,2013-03-12 00:26:00,
2013-03-11 20:28:00,45.5,42.2,30.09,SE,135,7.4,7.6,88,0.00,,SKC,0.08,VWS V14.01,2013-03-12 00:28:00,
2013-03-11 20:30:00,45.5,42.2,30.09,SE,135,7.8,8.7,88,0.00,,SKC,0.08,VWS V14.01,2013-03-12 00:30:00,
2013-03-11 20:31:00,45.5,42.2,30.09,SE,135,7.8,8.5,88,0.00,,SKC,0.08,VWS V14.01,2013-03-12 00:31:00,
2013-03-11 20:32:00,45.3,42.3,30.09,SE,135,7.8,7.8,89,0.00,,SKC,0.08,VWS V14.01,2013-03-12 00:32:00,
2013-03-11 20:34:00,45.3,42.3,30.09,SE,135,6.0,6.0,89,0.00,,SKC,0.08,VWS V14.01,2013-03-12 00:34:00,
2013-03-11 20:36:00,45.5,42.5,30.09,SE,135,8.7,8.7,89,0.00,,SKC,0.08,VWS V14.01,2013-03-12 00:36:00,
2013-03-11 20:38:00,45.3,42.3,30.09,SE,135,5.4,8.7,89,0.00,,SKC,0.08,VWS V14.01,2013-03-12 00:38:00,
2013-03-11 20:40:00,45.3,42.3,30.09,SE,135,6.0,8.7,89,0.00,,SKC,0.08,VWS V14.01,2013-03-12 00:40:00,
2013-03-11 20:41:00,45.3,42.3,30.09,SE,135,6.3,6.3,89,0.00,,SKC,0.08,VWS V14.01,2013-03-12 00:41:00,
2013-03-11 20:42:00,45.3,42.3,30.09,SE,135,6.3,6.3,89,0.00,,SKC,0.08,VWS V14.01,2013-03-12 00:42:00,
2013-03-11 20:44:00,45.3,42.3,30.09,SE,135,5.8,6.3,89,0.00,,SKC,0.08,VWS V14.01,2013-03-12 00:44:00,
2013-03-11 20:46:00,45.3,42.3,30.09,SE,135,6.3,6.3,89,0.00,,SKC,0.08,VWS V14.01,2013-03-12 00:46:00,
2013-03-11 20:48:00,45.3,42.3,30.09,SE,135,6.3,6.3,89,0.00,,SKC,0.08,VWS V14.01,2013-03-12 00:48:00,
2013-03-11 20:50:00,45.3,42.3,30.09,SE,135,5.6,6.3,89,0.00,,SKC,0.08,VWS V14.01,2013-03-12 00:50:00,
2013-03-11 20:51:00,45.3,42.3,30.09,SE,135,6.0,6.3,89,0.00,,SKC,0.08,VWS V14.01,2013-03-12 00:51:00,
2013-03-11 20:52:00,45.3,42.3,30.09,SE,135,6.0,6.0,89,0.00,,SKC,0.08,VWS V14.01,2013-03-12 00:52:00,
2013-03-11 20:54:00,45.3,42.3,30.09,SSE,158,4.3,6.0,89,0.00,,SKC,0.08,VWS V14.01,2013-03-12 00:54:00,
2013-03-11 20:56:00,45.1,42.1,30.09,SSE,158,4.3,4.3,89,0.00,,SKC,0.08,VWS V14.01,2013-03-12 00:56:00,
2013-03-11 20:58:00,45.1,42.1,30.09,SE,135,6.0,6.0,89,0.00,,SKC,0.08,VWS V14.01,2013-03-12 00:58:00,
2013-03-11 21:00:00,45.1,42.1,30.06,SSE,158,5.8,6.0,89,0.00,,SKC,0.08,VWS V14.01,2013-03-12 01:00:00,
2013-03-11 21:01:00,45.1,42.1,30.06,SSE,158,5.8,5.8,89,0.00,,SKC,0.08,VWS V14.01,2013-03-12 01:01:00,
2013-03-11 21:02:00,45.1,42.1,30.06,SSE,158,5.8,5.8,89,0.00,,SKC,0.08,VWS V14.01,2013-03-12 01:02:00,
2013-03-11 21:04:00,45.1,42.1,30.06,SSE,158,5.4,5.8,89,0.00,,SKC,0.08,VWS V14.01,2013-03-12 01:04:00,
2013-03-11 21:06:00,45.0,41.9,30.06,SE,135,4.3,7.6,89,0.00,,SKC,0.08,VWS V14.01,2013-03-12 01:06:00,
2013-03-11 21:08:00,45.0,41.9,30.06,SE,135,5.4,7.6,89,0.00,,SKC,0.08,VWS V14.01,2013-03-12 01:08:00,
2013-03-11 21:10:00,45.0,41.9,30.06,SE,135,4.9,5.8,89,0.00,,SKC,0.08,VWS V14.01,2013-03-12 01:10:00,
2013-03-11 21:11:00,45.0,41.9,30.06,SE,135,5.6,5.8,89,0.00,,SKC,0.08,VWS V14.01,2013-03-12 01:11:00,
2013-03-11 21:12:00,44.8,41.7,30.06,SE,135,5.6,5.6,89,0.00,,SKC,0.08,VWS V14.01,2013-03-12 01:12:00,
2013-03-11 21:14:00,44.8,41.7,30.09,SE,135,5.6,5.6,89,0.00,,SKC,0.08,VWS V14.01,2013-03-12 01:14:00,
2013-03-11 21:16:00,44.8,41.7,30.09,SSE,158,6.3,6.3,89,0.00,,SKC,0.08,VWS V14.01,2013-03-12 01:16:00,
2013-03-11 21:18:00,44.8,41.7,30.09,SSE,158,6.3,6.3,89,0.00,,SKC,0.08,VWS V14.01,2013-03-12 01:18:00,
2013-03-11 21:20:00,44.6,41.6,30.09,SSE,158,6.3,6.3,89,0.00,,SKC,0.08,VWS V14.01,2013-03-12 01:20:00,
2013-03-11 21:21:00,44.6,41.6,30.09,SE,135,3.4,6.3,89,0.00,,SKC,0.08,VWS V14.01,2013-03-12 01:21:00,
2013-03-11 21:22:00,44.6,41.6,30.09,SE,135,3.4,6.3,89,0.00,,SKC,0.08,VWS V14.01,2013-03-12 01:22:00,
2013-03-11 21:24:00,44.4,41.7,30.09,SE,135,4.0,4.0,90,0.00,,SKC,0.08,VWS V14.01,2013-03-12 01:24:00,
2013-03-11 21:26:00,44.2,41.5,30.09,ESE,112,3.8,4.0,90,0.00,,SKC,0.08,VWS V14.01,2013-03-12 01:26:00,
2013-03-11 21:28:00,44.2,41.2,30.09,ESE,112,3.8,4.0,89,0.00,,SKC,0.08,VWS V14.01,2013-03-12 01:28:00,
2013-03-11 21:30:00,44.1,41.0,30.09,ESE,112,3.8,3.8,89,0.00,,SKC,0.08,VWS V14.01,2013-03-12 01:30:00,
2013-03-11 21:31:00,44.1,41.0,30.09,ESE,112,3.8,3.8,89,0.00,,SKC,0.08,VWS V14.01,2013-03-12 01:31:00,
2013-03-11 21:32:00,44.1,41.0,30.09,ESE,112,3.8,3.8,89,0.00,,SKC,0.08,VWS V14.01,2013-03-12 01:32:00,
2013-03-11 21:34:00,44.1,41.3,30.09,SE,135,2.9,3.8,90,0.00,,SKC,0.08,VWS V14.01,2013-03-12 01:34:00,
2013-03-11 21:36:00,43.9,41.1,30.09,SE,135,3.6,3.6,90,0.00,,SKC,0.08,VWS V14.01,2013-03-12 01:36:00,
2013-03-11 21:38:00,43.7,40.7,30.09,SE,135,3.6,3.6,89,0.00,,SKC,0.08,VWS V14.01,2013-03-12 01:38:00,
2013-03-11 21:40:00,43.7,41.0,30.09,SE,135,3.1,3.6,90,0.00,,SKC,0.08,VWS V14.01,2013-03-12 01:40:00,
2013-03-11 21:41:00,43.5,40.5,30.09,SE,135,3.1,3.1,89,0.00,,SKC,0.08,VWS V14.01,2013-03-12 01:41:00,
2013-03-11 21:42:00,43.5,40.5,30.09,SE,135,3.1,3.1,89,0.00,,SKC,0.08,VWS V14.01,2013-03-12 01:42:00,
2013-03-11 21:44:00,43.2,39.8,30.09,SE,135,3.4,3.6,88,0.00,,SKC,0.08,VWS V14.01,2013-03-12 01:44:00,
2013-03-11 21:46:00,43.0,39.7,30.09,SE,135,4.7,4.7,88,0.00,,SKC,0.08,VWS V14.01,2013-03-12 01:46:00,
2013-03-11 21:48:00,42.8,39.5,30.09,ESE,112,3.6,4.7,88,0.00,,SKC,0.08,VWS V14.01,2013-03-12 01:48:00,
2013-03-11 21:50:00,42.8,39.5,30.09,SE,135,4.9,4.9,88,0.00,,SKC,0.08,VWS V14.01,2013-03-12 01:50:00,
2013-03-11 21:51:00,42.8,39.8,30.09,SE,135,4.7,5.8,89,0.00,,SKC,0.08,VWS V14.01,2013-03-12 01:51:00,
2013-03-11 21:52:00,42.8,39.8,30.09,SE,135,5.4,5.8,89,0.00,,SKC,0.08,VWS V14.01,2013-03-12 01:52:00,
2013-03-11 21:54:00,43.0,40.0,30.09,SE,135,3.4,4.3,89,0.00,,SKC,0.08,VWS V14.01,2013-03-12 01:54:00,
2013-03-11 21:56:00,43.0,40.0,30.09,SE,135,5.8,6.5,89,0.00,,SKC,0.08,VWS V14.01,2013-03-12 01:56:00,
2013-03-11 21:57:00,43.0,40.2,30.09,SSE,158,5.4,6.0,90,0.00,,SKC,0.08,VWS V14.01,2013-03-12 01:57:00,
2013-03-11 21:58:00,43.0,40.2,30.09,SE,135,6.0,6.5,90,0.00,,SKC,0.08,VWS V14.01,2013-03-12 01:58:00,
2013-03-11 22:00:00,43.2,40.4,30.09,SSE,158,5.6,6.3,90,0.00,,SKC,0.08,VWS V14.01,2013-03-12 02:00:00,
2013-03-11 22:02:00,43.2,40.4,30.09,SE,135,6.5,6.5,90,0.00,,SKC,0.08,VWS V14.01,2013-03-12 02:02:00,
2013-03-11 22:04:00,43.3,40.9,30.09,SSE,158,4.5,6.0,91,0.00,,SKC,0.08,VWS V14.01,2013-03-12 02:04:00,
2013-03-11 22:06:00,43.3,40.9,30.09,SE,135,4.3,4.9,91,0.00,,SKC,0.08,VWS V14.01,2013-03-12 02:06:00,
2013-03-11 22:07:00,43.3,40.9,30.09,SE,135,4.0,4.9,91,0.00,,SKC,0.08,VWS V14.01,2013-03-12 02:07:00,
2013-03-11 22:08:00,43.3,40.9,30.09,SSE,158,5.4,5.4,91,0.00,,SKC,0.08,VWS V14.01,2013-03-12 02:08:00,
2013-03-11 22:10:00,43.3,40.9,30.09,SSE,158,3.4,4.5,91,0.00,,SKC,0.08,VWS V14.01,2013-03-12 02:10:00,
2013-03-11 22:12:00,43.3,40.9,30.09,SE,135,4.0,4.3,91,0.00,,SKC,0.08,VWS V14.01,2013-03-12 02:12:00,
2013-03-11 22:14:00,43.3,40.9,30.09,SSE,158,5.6,5.6,91,0.00,,SKC,0.08,VWS V14.01,2013-03-12 02:14:00,
2013-03-11 22:16:00,43.3,40.9,30.09,SE,135,4.9,6.3,91,0.00,,SKC,0.08,VWS V14.01,2013-03-12 02:16:00,
2013-03-11 22:17:00,43.3,40.9,30.09,SSE,158,5.4,6.0,91,0.00,,SKC,0.08,VWS V14.01,2013-03-12 02:17:00,
2013-03-11 22:18:00,43.3,40.9,30.09,SE,135,3.8,6.0,91,0.00,,SKC,0.08,VWS V14.01,2013-03-12 02:18:00,
2013-03-11 22:20:00,43.3,41.2,30.09,SSE,158,5.4,7.2,92,0.00,,SKC,0.08,VWS V14.01,2013-03-12 02:20:00,
2013-03-11 22:22:00,43.3,41.2,30.09,SSE,158,3.6,4.9,92,0.00,,SKC,0.08,VWS V14.01,2013-03-12 02:22:00,
2013-03-11 22:24:00,43.3,41.5,30.09,SSE,158,3.1,4.3,93,0.00,,SKC,0.08,VWS V14.01,2013-03-12 02:24:00,
2013-03-11 22:26:00,43.3,41.5,30.09,SE,135,4.3,4.5,93,0.00,,SKC,0.08,VWS V14.01,2013-03-12 02:26:00,
2013-03-11 22:27:00,43.3,41.5,30.09,SE,135,4.0,4.9,93,0.00,,SKC,0.08,VWS V14.01,2013-03-12 02:27:00,
2013-03-11 22:28:00,43.3,41.5,30.09,SSE,158,5.8,5.8,93,0.00,,SKC,0.08,VWS V14.01,2013-03-12 02:28:00,
2013-03-11 22:30:00,43.3,41.2,30.09,SSE,158,4.0,6.5,92,0.00,,SKC,0.08,VWS V14.01,2013-03-12 02:30:00,
2013-03-11 22:32:00,43.3,41.2,30.09,SSE,158,4.3,4.7,92,0.00,,SKC,0.08,VWS V14.01,2013-03-12 02:32:00,
2013-03-11 22:34:00,43.3,41.2,30.09,SE,135,3.4,5.6,92,0.00,,SKC,0.08,VWS V14.01,2013-03-12 02:34:00,
2013-03-11 22:36:00,43.3,41.5,30.09,SSE,158,4.5,4.7,93,0.00,,SKC,0.08,VWS V14.01,2013-03-12 02:36:00,
2013-03-11 22:37:00,43.2,41.0,30.09,SSE,158,2.9,4.5,92,0.00,,SKC,0.08,VWS V14.01,2013-03-12 02:37:00,
2013-03-11 22:38:00,43.2,41.0,30.09,SSE,158,3.8,4.3,92,0.00,,SKC,0.08,VWS V14.01,2013-03-12 02:38:00,
2013-03-11 22:40:00,43.2,41.3,30.09,SSE,158,3.4,3.6,93,0.00,,SKC,0.08,VWS V14.01,2013-03-12 02:40:00,
2013-03-11 22:42:00,43.0,41.1,30.09,SE,135,3.1,3.4,93,0.00,,SKC,0.08,VWS V14.01,2013-03-12 02:42:00,
2013-03-11 22:44:00,43.0,41.1,30.06,SSE,158,3.6,3.6,93,0.00,,SKC,0.08,VWS V14.01,2013-03-12 02:44:00,
2013-03-11 22:46:00,43.0,41.1,30.06,SSE,158,2.5,2.7,93,0.00,,SKC,0.08,VWS V14.01,2013-03-12 02:46:00,
2013-03-11 22:47:00,43.0,41.1,30.06,SSE,158,2.0,2.7,93,0.00,,SKC,0.08,VWS V14.01,2013-03-12 02:47:00,
2013-03-11 22:48:00,43.0,41.1,30.06,SSE,158,0.9,2.7,93,0.00,,SKC,0.08,VWS V14.01,2013-03-12 02:48:00,
2013-03-11 22:50:00,42.8,40.9,30.06,SSE,158,2.0,2.9,93,0.00,,SKC,0.08,VWS V14.01,2013-03-12 02:50:00,
2013-03-11 22:52:00,42.8,40.9,30.06,SE,135,2.7,3.4,93,0.00,,SKC,0.08,VWS V14.01,2013-03-12 02:52:00,
2013-03-11 22:54:00,42.8,40.9,30.06,SE,135,3.1,4.0,93,0.00,,SKC,0.08,VWS V14.01,2013-03-12 02:54:00,
2013-03-11 22:56:00,42.6,40.7,30.06,SE,135,3.4,3.8,93,0.00,,SKC,0.08,VWS V14.01,2013-03-12 02:56:00,
2013-03-11 22:57:00,42.6,40.7,30.06,SE,135,3.4,3.8,93,0.00,,SKC,0.08,VWS V14.01,2013-03-12 02:57:00,
2013-03-11 22:58:00,42.6,40.7,30.06,SE,135,3.4,3.8,93,0.00,,SKC,0.08,VWS V14.01,2013-03-12 02:58:00,
2013-03-11 23:00:00,42.6,40.7,30.09,SE,135,3.4,3.6,93,0.00,,SKC,0.08,VWS V14.01,2013-03-12 03:00:00,
2013-03-11 23:02:00,42.6,40.7,30.09,South,180,0.0,2.5,93,0.00,,SKC,0.08,VWS V14.01,2013-03-12 03:02:00,
2013-03-11 23:04:00,42.4,40.6,30.09,SSE,158,1.6,1.6,93,0.00,,SKC,0.08,VWS V14.01,2013-03-12 03:04:00,
2013-03-11 23:06:00,42.4,40.6,30.09,SE,135,2.2,2.5,93,0.00,,SKC,0.08,VWS V14.01,2013-03-12 03:06:00,
2013-03-11 23:07:00,42.4,40.6,30.09,South,180,1.6,2.2,93,0.00,,SKC,0.08,VWS V14.01,2013-03-12 03:07:00,
2013-03-11 23:08:00,42.4,40.6,30.09,SE,135,1.6,2.0,93,0.00,,SKC,0.08,VWS V14.01,2013-03-12 03:08:00,
2013-03-11 23:10:00,42.4,40.8,30.09,SE,135,2.7,2.9,94,0.00,,SKC,0.08,VWS V14.01,2013-03-12 03:10:00,
2013-03-11 23:12:00,42.4,40.8,30.09,SSE,158,3.6,3.6,94,0.00,,SKC,0.08,VWS V14.01,2013-03-12 03:12:00,
2013-03-11 23:14:00,42.4,40.6,30.09,SE,135,3.6,3.8,93,0.00,,SKC,0.08,VWS V14.01,2013-03-12 03:14:00,
2013-03-11 23:16:00,42.4,40.8,30.09,SE,135,3.6,3.6,94,0.00,,SKC,0.08,VWS V14.01,2013-03-12 03:16:00,
2013-03-11 23:17:00,42.4,40.8,30.09,SSE,158,3.4,3.4,94,0.00,,SKC,0.08,VWS V14.01,2013-03-12 03:17:00,
2013-03-11 23:18:00,42.4,40.8,30.09,SSE,158,2.9,3.4,94,0.00,,SKC,0.08,VWS V14.01,2013-03-12 03:18:00,
2013-03-11 23:20:00,42.4,40.8,30.09,SE,135,3.6,5.6,94,0.00,,SKC,0.08,VWS V14.01,2013-03-12 03:20:00,
2013-03-11 23:22:00,42.4,40.8,30.09,SSE,158,2.9,3.8,94,0.00,,SKC,0.08,VWS V14.01,2013-03-12 03:22:00,
2013-03-11 23:24:00,42.4,40.8,30.09,SSE,158,3.1,3.8,94,0.00,,SKC,0.08,VWS V14.01,2013-03-12 03:24:00,
2013-03-11 23:26:00,42.6,41.0,30.09,South,180,3.4,4.0,94,0.00,,SKC,0.08,VWS V14.01,2013-03-12 03:26:00,
2013-03-11 23:27:00,42.6,41.0,30.09,SSE,158,2.5,2.5,94,0.00,,SKC,0.08,VWS V14.01,2013-03-12 03:27:00,
2013-03-11 23:28:00,42.6,41.0,30.09,SSE,158,2.2,2.5,94,0.00,,SKC,0.08,VWS V14.01,2013-03-12 03:28:00,
2013-03-11 23:30:00,42.6,41.0,30.09,South,180,1.3,2.9,94,0.00,,SKC,0.08,VWS V14.01,2013-03-12 03:30:00,
2013-03-11 23:32:00,42.8,41.2,30.09,SSE,158,1.6,2.2,94,0.00,,SKC,0.08,VWS V14.01,2013-03-12 03:32:00,
2013-03-11 23:34:00,42.8,41.2,30.09,SSE,158,0.0,2.2,94,0.00,,SKC,0.08,VWS V14.01,2013-03-12 03:34:00,
2013-03-11 23:36:00,42.8,41.2,30.09,SSE,158,2.0,2.9,94,0.00,,SKC,0.08,VWS V14.01,2013-03-12 03:36:00,
2013-03-11 23:37:00,42.8,41.2,30.09,SSE,158,0.0,2.5,94,0.00,,SKC,0.08,VWS V14.01,2013-03-12 03:37:00,
2013-03-11 23:38:00,42.8,41.2,30.09,SSE,158,0.0,2.5,94,0.00,,SKC,0.08,VWS V14.01,2013-03-12 03:38:00,
2013-03-11 23:40:00,42.8,41.5,30.09,SSE,158,0.0,0.0,95,0.00,,SKC,0.08,VWS V14.01,2013-03-12 03:40:00,
2013-03-11 23:42:00,42.8,41.5,30.09,SSE,158,2.2,2.2,95,0.00,,SKC,0.08,VWS V14.01,2013-03-12 03:42:00,
2013-03-11 23:44:00,42.8,41.5,30.06,SE,135,2.5,2.5,95,0.00,,SKC,0.08,VWS V14.01,2013-03-12 03:44:00,
2013-03-11 23:46:00,42.8,41.5,30.06,SSE,158,2.5,3.8,95,0.00,,SKC,0.08,VWS V14.01,2013-03-12 03:46:00,
2013-03-11 23:47:00,42.8,41.5,30.06,SSE,158,3.4,3.4,95,0.00,,SKC,0.08,VWS V14.01,2013-03-12 03:47:00,
2013-03-11 23:48:00,42.8,41.5,30.06,SSE,158,3.4,3.4,95,0.00,,SKC,0.08,VWS V14.01,2013-03-12 03:48:00,
2013-03-11 23:50:00,42.8,41.5,30.06,SE,135,3.1,3.8,95,0.00,,SKC,0.08,VWS V14.01,2013-03-12 03:50:00,
2013-03-11 23:52:00,43.0,41.7,30.06,South,180,2.5,3.8,95,0.00,,SKC,0.08,VWS V14.01,2013-03-12 03:52:00,
2013-03-11 23:53:00,43.0,41.7,30.06,SSE,158,3.1,3.1,95,0.00,,SKC,0.08,VWS V14.01,2013-03-12 03:53:00,
2013-03-11 23:54:00,43.0,41.7,30.06,South,180,2.5,3.1,95,0.00,,SKC,0.08,VWS V14.01,2013-03-12 03:54:00,
2013-03-11 23:56:00,43.2,41.8,30.06,South,180,2.5,2.5,95,0.00,,SKC,0.08,VWS V14.01,2013-03-12 03:56:00,
2013-03-11 23:58:00,43.2,41.8,30.06,SE,135,1.3,2.5,95,0.00,,SKC,0.08,VWS V14.01,2013-03-12 03:58:00,